<?xml version="1.0" encoding="UTF-8" standalone="no" ?>
<gpx xmlns="http://www.topografix.com/GPX/1/1" xmlns:xsi="http://www.w3.org/2001/XMLSchema-instance" xsi:schemaLocation="http://www.topografix.com/GPX/1/1 http://www.topografix.com/GPX/1/1/gpx.xsd" version="1.1" creator="VisuGPX - https://www.visugpx.com">
  <metadata>
    <name>65 - PEDESTRE - La fruitière au lac d\'Estom et retour</name>
    <desc><![CDATA[Petite sortie]]></desc>
  </metadata>
  <wpt lat="42.85205" lon="-0.09777">
    <ele>1541.107421875</ele>
    <name><![CDATA[001]]></name>
    <desc><![CDATA[09-JUL-15 10:54:57]]></desc>
    <cmt><![CDATA[09-JUL-15 10:54:57]]></cmt>
  </wpt>
  <wpt lat="42.80774" lon="-0.09945">
    <ele>1783.8386230469</ele>
    <name><![CDATA[002]]></name>
    <desc><![CDATA[09-JUL-15 11:40:35]]></desc>
    <cmt><![CDATA[09-JUL-15 11:40:35]]></cmt>
  </wpt>
  <wpt lat="42.85352" lon="-0.09853">
    <ele>1369.1</ele>
    <name><![CDATA[La Fruitière]]></name>
    <desc><![CDATA[La Fruitière]]></desc>
    <cmt><![CDATA[La Fruitière]]></cmt>
  </wpt>
  <wpt lat="42.80625" lon="-0.09995">
    <ele>1802</ele>
    <name><![CDATA[Lac D'Estom]]></name>
    <desc><![CDATA[Lac D'Estom]]></desc>
    <cmt><![CDATA[Lac D'Estom]]></cmt>
  </wpt>
  <wpt lat="42.853" lon="-0.09797">
    <ele>1365.2</ele>
    <name><![CDATA[Parking]]></name>
    <desc><![CDATA[Parking la Fruitière 1371m]]></desc>
    <cmt><![CDATA[Parking la Fruitière 1371m]]></cmt>
  </wpt>
  <wpt lat="42.80846" lon="-0.09922">
    <ele>1796.9</ele>
    <name><![CDATA[Refuge D'Estom]]></name>
    <desc><![CDATA[Refuge D'Estom (Hôtellerie)]]></desc>
    <cmt><![CDATA[Refuge D'Estom (Hôtellerie)]]></cmt>
  </wpt>
  <trk>
    <name><![CDATA[ACTIVE LOG 001]]></name>
    <trkseg>
      <trkpt lat="42.85355" lon="-0.09828">
        <ele>1364.7287597656</ele>
        <time>2015-07-09T08:06:46Z</time>
      </trkpt>
      <trkpt lat="42.85354" lon="-0.09827">
        <ele>1364.7287597656</ele>
        <time>2015-07-09T08:06:48Z</time>
      </trkpt>
      <trkpt lat="42.85353" lon="-0.09827">
        <ele>1364.7287597656</ele>
        <time>2015-07-09T08:06:49Z</time>
      </trkpt>
      <trkpt lat="42.85357" lon="-0.09834">
        <ele>1365.2094726562</ele>
        <time>2015-07-09T08:07:32Z</time>
      </trkpt>
      <trkpt lat="42.85353" lon="-0.09816">
        <ele>1366.6513671875</ele>
        <time>2015-07-09T08:09:10Z</time>
      </trkpt>
      <trkpt lat="42.85351" lon="-0.09816">
        <ele>1366.6513671875</ele>
        <time>2015-07-09T08:09:12Z</time>
      </trkpt>
      <trkpt lat="42.85325" lon="-0.09815">
        <ele>1367.6125488281</ele>
        <time>2015-07-09T08:09:34Z</time>
      </trkpt>
      <trkpt lat="42.853" lon="-0.0981">
        <ele>1370.4965820312</ele>
        <time>2015-07-09T08:09:54Z</time>
      </trkpt>
      <trkpt lat="42.85296" lon="-0.09813">
        <ele>1370.0158691406</ele>
        <time>2015-07-09T08:09:57Z</time>
      </trkpt>
      <trkpt lat="42.85292" lon="-0.09819">
        <ele>1370.4965820312</ele>
        <time>2015-07-09T08:10:03Z</time>
      </trkpt>
      <trkpt lat="42.85272" lon="-0.09809">
        <ele>1370.9772949219</ele>
        <time>2015-07-09T08:10:20Z</time>
      </trkpt>
      <trkpt lat="42.85253" lon="-0.0981">
        <ele>1371.4577636719</ele>
        <time>2015-07-09T08:10:36Z</time>
      </trkpt>
      <trkpt lat="42.85248" lon="-0.0981">
        <ele>1371.4577636719</ele>
        <time>2015-07-09T08:10:49Z</time>
      </trkpt>
    </trkseg>
  </trk>
  <trk>
    <name><![CDATA[ACTIVE LOG 002]]></name>
    <trkseg>
      <trkpt lat="42.85232" lon="-0.0975">
        <ele>1372.4194335938</ele>
        <time>2015-07-09T08:11:25Z</time>
      </trkpt>
      <trkpt lat="42.85232" lon="-0.0975">
        <ele>1375.3032226562</ele>
        <time>2015-07-09T08:11:49Z</time>
      </trkpt>
    </trkseg>
  </trk>
  <trk>
    <name><![CDATA[ACTIVE LOG 003]]></name>
    <trkseg>
      <trkpt lat="42.85233" lon="-0.09767">
        <ele>1375.3032226562</ele>
        <time>2015-07-09T08:11:50Z</time>
      </trkpt>
      <trkpt lat="42.8523" lon="-0.09769">
        <ele>1375.3032226562</ele>
        <time>2015-07-09T08:12:01Z</time>
      </trkpt>
      <trkpt lat="42.85222" lon="-0.09769">
        <ele>1376.2646484375</ele>
        <time>2015-07-09T08:12:18Z</time>
      </trkpt>
    </trkseg>
  </trk>
  <trk>
    <name><![CDATA[ACTIVE LOG 004]]></name>
    <trkseg>
      <trkpt lat="42.85205" lon="-0.09777">
        <ele>1377.7065429688</ele>
        <time>2015-07-09T08:12:44Z</time>
      </trkpt>
      <trkpt lat="42.85205" lon="-0.09777">
        <ele>1381.0712890625</ele>
        <time>2015-07-09T08:13:25Z</time>
      </trkpt>
      <trkpt lat="42.85205" lon="-0.09777">
        <ele>1383.955078125</ele>
        <time>2015-07-09T08:14:04Z</time>
      </trkpt>
      <trkpt lat="42.85205" lon="-0.09777">
        <ele>1387.3195800781</ele>
        <time>2015-07-09T08:14:54Z</time>
      </trkpt>
      <trkpt lat="42.85205" lon="-0.09777">
        <ele>1390.6843261719</ele>
        <time>2015-07-09T08:16:32Z</time>
      </trkpt>
      <trkpt lat="42.85205" lon="-0.09777">
        <ele>1394.0490722656</ele>
        <time>2015-07-09T08:17:37Z</time>
      </trkpt>
      <trkpt lat="42.85205" lon="-0.09777">
        <ele>1397.4135742188</ele>
        <time>2015-07-09T08:18:25Z</time>
      </trkpt>
      <trkpt lat="42.85205" lon="-0.09777">
        <ele>1400.2976074219</ele>
        <time>2015-07-09T08:19:18Z</time>
      </trkpt>
      <trkpt lat="42.85205" lon="-0.09777">
        <ele>1403.662109375</ele>
        <time>2015-07-09T08:19:47Z</time>
      </trkpt>
      <trkpt lat="42.85205" lon="-0.09777">
        <ele>1406.5461425781</ele>
        <time>2015-07-09T08:21:11Z</time>
      </trkpt>
      <trkpt lat="42.85205" lon="-0.09777">
        <ele>1409.9106445312</ele>
        <time>2015-07-09T08:21:36Z</time>
      </trkpt>
      <trkpt lat="42.85205" lon="-0.09777">
        <ele>1412.7946777344</ele>
        <time>2015-07-09T08:22:20Z</time>
      </trkpt>
      <trkpt lat="42.85205" lon="-0.09777">
        <ele>1416.1591796875</ele>
        <time>2015-07-09T08:22:49Z</time>
      </trkpt>
      <trkpt lat="42.85205" lon="-0.09777">
        <ele>1419.5239257812</ele>
        <time>2015-07-09T08:23:10Z</time>
      </trkpt>
      <trkpt lat="42.85205" lon="-0.09777">
        <ele>1422.888671875</ele>
        <time>2015-07-09T08:23:27Z</time>
      </trkpt>
      <trkpt lat="42.85205" lon="-0.09777">
        <ele>1425.7724609375</ele>
        <time>2015-07-09T08:23:43Z</time>
      </trkpt>
      <trkpt lat="42.85205" lon="-0.09777">
        <ele>1429.1369628906</ele>
        <time>2015-07-09T08:24:01Z</time>
      </trkpt>
      <trkpt lat="42.85205" lon="-0.09777">
        <ele>1432.5017089844</ele>
        <time>2015-07-09T08:24:16Z</time>
      </trkpt>
      <trkpt lat="42.85205" lon="-0.09777">
        <ele>1435.3854980469</ele>
        <time>2015-07-09T08:24:40Z</time>
      </trkpt>
      <trkpt lat="42.85205" lon="-0.09777">
        <ele>1438.7504882812</ele>
        <time>2015-07-09T08:25:12Z</time>
      </trkpt>
      <trkpt lat="42.85205" lon="-0.09777">
        <ele>1442.1149902344</ele>
        <time>2015-07-09T08:26:11Z</time>
      </trkpt>
      <trkpt lat="42.85205" lon="-0.09777">
        <ele>1443.076171875</ele>
        <time>2015-07-09T08:28:12Z</time>
      </trkpt>
      <trkpt lat="42.85205" lon="-0.09777">
        <ele>1446.4409179688</ele>
        <time>2015-07-09T08:29:00Z</time>
      </trkpt>
      <trkpt lat="42.85205" lon="-0.09777">
        <ele>1449.3247070312</ele>
        <time>2015-07-09T08:29:40Z</time>
      </trkpt>
      <trkpt lat="42.85205" lon="-0.09777">
        <ele>1452.689453125</ele>
        <time>2015-07-09T08:30:09Z</time>
      </trkpt>
      <trkpt lat="42.85205" lon="-0.09777">
        <ele>1455.5734863281</ele>
        <time>2015-07-09T08:30:32Z</time>
      </trkpt>
      <trkpt lat="42.85205" lon="-0.09777">
        <ele>1458.9379882812</ele>
        <time>2015-07-09T08:30:53Z</time>
      </trkpt>
      <trkpt lat="42.85205" lon="-0.09777">
        <ele>1462.3024902344</ele>
        <time>2015-07-09T08:31:10Z</time>
      </trkpt>
      <trkpt lat="42.85205" lon="-0.09777">
        <ele>1462.783203125</ele>
        <time>2015-07-09T08:32:46Z</time>
      </trkpt>
      <trkpt lat="42.85205" lon="-0.09777">
        <ele>1466.1477050781</ele>
        <time>2015-07-09T08:34:22Z</time>
      </trkpt>
      <trkpt lat="42.85205" lon="-0.09777">
        <ele>1468.5512695312</ele>
        <time>2015-07-09T08:36:09Z</time>
      </trkpt>
      <trkpt lat="42.85205" lon="-0.09777">
        <ele>1466.1477050781</ele>
        <time>2015-07-09T08:36:21Z</time>
      </trkpt>
      <trkpt lat="42.85205" lon="-0.09777">
        <ele>1469.0319824219</ele>
        <time>2015-07-09T08:36:22Z</time>
      </trkpt>
      <trkpt lat="42.85205" lon="-0.09777">
        <ele>1468.0705566406</ele>
        <time>2015-07-09T08:36:23Z</time>
      </trkpt>
      <trkpt lat="42.85205" lon="-0.09777">
        <ele>1471.4350585938</ele>
        <time>2015-07-09T08:36:58Z</time>
      </trkpt>
      <trkpt lat="42.85205" lon="-0.09777">
        <ele>1469.9931640625</ele>
        <time>2015-07-09T08:37:12Z</time>
      </trkpt>
      <trkpt lat="42.85205" lon="-0.09777">
        <ele>1473.8383789062</ele>
        <time>2015-07-09T08:37:13Z</time>
      </trkpt>
      <trkpt lat="42.85205" lon="-0.09777">
        <ele>1472.396484375</ele>
        <time>2015-07-09T08:37:14Z</time>
      </trkpt>
      <trkpt lat="42.85205" lon="-0.09777">
        <ele>1475.2802734375</ele>
        <time>2015-07-09T08:38:40Z</time>
      </trkpt>
      <trkpt lat="42.85205" lon="-0.09777">
        <ele>1478.6450195312</ele>
        <time>2015-07-09T08:39:56Z</time>
      </trkpt>
      <trkpt lat="42.85205" lon="-0.09777">
        <ele>1482.0095214844</ele>
        <time>2015-07-09T08:40:50Z</time>
      </trkpt>
      <trkpt lat="42.85205" lon="-0.09777">
        <ele>1485.3742675781</ele>
        <time>2015-07-09T08:42:07Z</time>
      </trkpt>
      <trkpt lat="42.85205" lon="-0.09777">
        <ele>1483.9321289062</ele>
        <time>2015-07-09T08:42:09Z</time>
      </trkpt>
      <trkpt lat="42.85205" lon="-0.09777">
        <ele>1487.296875</ele>
        <time>2015-07-09T08:42:36Z</time>
      </trkpt>
      <trkpt lat="42.85205" lon="-0.09777">
        <ele>1489.7001953125</ele>
        <time>2015-07-09T08:43:22Z</time>
      </trkpt>
      <trkpt lat="42.85205" lon="-0.09777">
        <ele>1488.2583007812</ele>
        <time>2015-07-09T08:43:24Z</time>
      </trkpt>
      <trkpt lat="42.85205" lon="-0.09777">
        <ele>1491.1420898438</ele>
        <time>2015-07-09T08:43:58Z</time>
      </trkpt>
      <trkpt lat="42.85205" lon="-0.09777">
        <ele>1493.5454101562</ele>
        <time>2015-07-09T08:44:12Z</time>
      </trkpt>
      <trkpt lat="42.85205" lon="-0.09777">
        <ele>1496.9099121094</ele>
        <time>2015-07-09T08:44:37Z</time>
      </trkpt>
      <trkpt lat="42.85205" lon="-0.09777">
        <ele>1498.8325195312</ele>
        <time>2015-07-09T08:44:51Z</time>
      </trkpt>
      <trkpt lat="42.85205" lon="-0.09777">
        <ele>1502.197265625</ele>
        <time>2015-07-09T08:45:00Z</time>
      </trkpt>
      <trkpt lat="42.85205" lon="-0.09777">
        <ele>1505.5620117188</ele>
        <time>2015-07-09T08:45:36Z</time>
      </trkpt>
      <trkpt lat="42.85205" lon="-0.09777">
        <ele>1508.4458007812</ele>
        <time>2015-07-09T08:45:55Z</time>
      </trkpt>
      <trkpt lat="42.85205" lon="-0.09777">
        <ele>1511.3298339844</ele>
        <time>2015-07-09T08:46:17Z</time>
      </trkpt>
      <trkpt lat="42.85205" lon="-0.09777">
        <ele>1513.2524414062</ele>
        <time>2015-07-09T08:46:23Z</time>
      </trkpt>
      <trkpt lat="42.85205" lon="-0.09777">
        <ele>1515.1750488281</ele>
        <time>2015-07-09T08:46:34Z</time>
      </trkpt>
      <trkpt lat="42.85205" lon="-0.09777">
        <ele>1516.6171875</ele>
        <time>2015-07-09T08:46:41Z</time>
      </trkpt>
      <trkpt lat="42.85205" lon="-0.09777">
        <ele>1518.0590820312</ele>
        <time>2015-07-09T08:46:49Z</time>
      </trkpt>
      <trkpt lat="42.85205" lon="-0.09777">
        <ele>1521.4235839844</ele>
        <time>2015-07-09T08:48:01Z</time>
      </trkpt>
      <trkpt lat="42.85205" lon="-0.09777">
        <ele>1521.4235839844</ele>
        <time>2015-07-09T08:48:31Z</time>
      </trkpt>
      <trkpt lat="42.85205" lon="-0.09777">
        <ele>1519.9816894531</ele>
        <time>2015-07-09T08:48:37Z</time>
      </trkpt>
      <trkpt lat="42.85205" lon="-0.09777">
        <ele>1521.4235839844</ele>
        <time>2015-07-09T08:48:38Z</time>
      </trkpt>
      <trkpt lat="42.85205" lon="-0.09777">
        <ele>1522.8657226562</ele>
        <time>2015-07-09T08:50:16Z</time>
      </trkpt>
      <trkpt lat="42.85205" lon="-0.09777">
        <ele>1524.3076171875</ele>
        <time>2015-07-09T08:51:08Z</time>
      </trkpt>
      <trkpt lat="42.85205" lon="-0.09777">
        <ele>1527.1916503906</ele>
        <time>2015-07-09T08:51:29Z</time>
      </trkpt>
      <trkpt lat="42.85205" lon="-0.09777">
        <ele>1529.5947265625</ele>
        <time>2015-07-09T08:51:53Z</time>
      </trkpt>
      <trkpt lat="42.85205" lon="-0.09777">
        <ele>1532.9594726562</ele>
        <time>2015-07-09T08:52:10Z</time>
      </trkpt>
      <trkpt lat="42.85205" lon="-0.09777">
        <ele>1535.8435058594</ele>
        <time>2015-07-09T08:53:16Z</time>
      </trkpt>
      <trkpt lat="42.85205" lon="-0.09777">
        <ele>1539.2080078125</ele>
        <time>2015-07-09T08:54:17Z</time>
      </trkpt>
      <trkpt lat="42.85205" lon="-0.09777">
        <ele>1542.0920410156</ele>
        <time>2015-07-09T08:55:09Z</time>
      </trkpt>
      <trkpt lat="42.85205" lon="-0.09777">
        <ele>1544.9758300781</ele>
        <time>2015-07-09T08:56:04Z</time>
      </trkpt>
      <trkpt lat="42.85205" lon="-0.09777">
        <ele>1548.3405761719</ele>
        <time>2015-07-09T08:56:55Z</time>
      </trkpt>
      <trkpt lat="42.85205" lon="-0.09777">
        <ele>1551.7053222656</ele>
        <time>2015-07-09T08:58:57Z</time>
      </trkpt>
      <trkpt lat="42.85205" lon="-0.09777">
        <ele>1555.0698242188</ele>
        <time>2015-07-09T09:00:18Z</time>
      </trkpt>
      <trkpt lat="42.85205" lon="-0.09777">
        <ele>1557.9538574219</ele>
        <time>2015-07-09T09:01:00Z</time>
      </trkpt>
      <trkpt lat="42.85205" lon="-0.09777">
        <ele>1561.318359375</ele>
        <time>2015-07-09T09:02:34Z</time>
      </trkpt>
      <trkpt lat="42.85205" lon="-0.09777">
        <ele>1564.2023925781</ele>
        <time>2015-07-09T09:03:15Z</time>
      </trkpt>
      <trkpt lat="42.85205" lon="-0.09777">
        <ele>1567.5668945312</ele>
        <time>2015-07-09T09:03:45Z</time>
      </trkpt>
      <trkpt lat="42.85205" lon="-0.09777">
        <ele>1570.4509277344</ele>
        <time>2015-07-09T09:04:03Z</time>
      </trkpt>
      <trkpt lat="42.85205" lon="-0.09777">
        <ele>1573.8154296875</ele>
        <time>2015-07-09T09:04:28Z</time>
      </trkpt>
      <trkpt lat="42.85205" lon="-0.09777">
        <ele>1577.6606445312</ele>
        <time>2015-07-09T09:05:13Z</time>
      </trkpt>
      <trkpt lat="42.85205" lon="-0.09777">
        <ele>1577.6606445312</ele>
        <time>2015-07-09T09:05:14Z</time>
      </trkpt>
      <trkpt lat="42.85205" lon="-0.09777">
        <ele>1581.5061035156</ele>
        <time>2015-07-09T09:05:59Z</time>
      </trkpt>
      <trkpt lat="42.85205" lon="-0.09777">
        <ele>1584.3901367188</ele>
        <time>2015-07-09T09:06:25Z</time>
      </trkpt>
      <trkpt lat="42.85205" lon="-0.09777">
        <ele>1587.7546386719</ele>
        <time>2015-07-09T09:06:54Z</time>
      </trkpt>
    </trkseg>
  </trk>
  <trk>
    <name><![CDATA[ACTIVE LOG 005]]></name>
    <trkseg>
      <trkpt lat="42.82057" lon="-0.09787">
        <ele>1589.6772460938</ele>
        <time>2015-07-09T09:07:19Z</time>
      </trkpt>
      <trkpt lat="42.82035" lon="-0.09795">
        <ele>1593.5224609375</ele>
        <time>2015-07-09T09:07:40Z</time>
      </trkpt>
      <trkpt lat="42.82027" lon="-0.09803">
        <ele>1593.5224609375</ele>
        <time>2015-07-09T09:07:55Z</time>
      </trkpt>
      <trkpt lat="42.82019" lon="-0.09807">
        <ele>1594.9643554688</ele>
        <time>2015-07-09T09:08:08Z</time>
      </trkpt>
      <trkpt lat="42.82015" lon="-0.09812">
        <ele>1597.8486328125</ele>
        <time>2015-07-09T09:08:20Z</time>
      </trkpt>
      <trkpt lat="42.8201" lon="-0.09811">
        <ele>1597.8486328125</ele>
        <time>2015-07-09T09:08:25Z</time>
      </trkpt>
      <trkpt lat="42.82004" lon="-0.09814">
        <ele>1597.8486328125</ele>
        <time>2015-07-09T09:08:32Z</time>
      </trkpt>
      <trkpt lat="42.8199" lon="-0.09808">
        <ele>1595.92578125</ele>
        <time>2015-07-09T09:08:43Z</time>
      </trkpt>
      <trkpt lat="42.81977" lon="-0.09809">
        <ele>1595.92578125</ele>
        <time>2015-07-09T09:08:50Z</time>
      </trkpt>
      <trkpt lat="42.81966" lon="-0.09812">
        <ele>1597.8486328125</ele>
        <time>2015-07-09T09:09:03Z</time>
      </trkpt>
      <trkpt lat="42.81943" lon="-0.09814">
        <ele>1595.4450683594</ele>
        <time>2015-07-09T09:09:23Z</time>
      </trkpt>
      <trkpt lat="42.81931" lon="-0.09816">
        <ele>1596.8872070312</ele>
        <time>2015-07-09T09:09:35Z</time>
      </trkpt>
      <trkpt lat="42.81924" lon="-0.09799">
        <ele>1596.4067382812</ele>
        <time>2015-07-09T09:09:46Z</time>
      </trkpt>
      <trkpt lat="42.81918" lon="-0.0979">
        <ele>1595.92578125</ele>
        <time>2015-07-09T09:09:56Z</time>
      </trkpt>
      <trkpt lat="42.81901" lon="-0.09774">
        <ele>1596.4067382812</ele>
        <time>2015-07-09T09:10:11Z</time>
      </trkpt>
      <trkpt lat="42.81897" lon="-0.09773">
        <ele>1595.4450683594</ele>
        <time>2015-07-09T09:10:15Z</time>
      </trkpt>
      <trkpt lat="42.81885" lon="-0.09767">
        <ele>1596.4067382812</ele>
        <time>2015-07-09T09:10:27Z</time>
      </trkpt>
      <trkpt lat="42.81884" lon="-0.09775">
        <ele>1596.8872070312</ele>
        <time>2015-07-09T09:10:37Z</time>
      </trkpt>
      <trkpt lat="42.81879" lon="-0.09779">
        <ele>1598.8098144531</ele>
        <time>2015-07-09T09:10:46Z</time>
      </trkpt>
      <trkpt lat="42.81878" lon="-0.09779">
        <ele>1598.8098144531</ele>
        <time>2015-07-09T09:10:47Z</time>
      </trkpt>
      <trkpt lat="42.81869" lon="-0.09787">
        <ele>1600.732421875</ele>
        <time>2015-07-09T09:11:00Z</time>
      </trkpt>
      <trkpt lat="42.81858" lon="-0.09789">
        <ele>1600.251953125</ele>
        <time>2015-07-09T09:11:13Z</time>
      </trkpt>
      <trkpt lat="42.81855" lon="-0.0979">
        <ele>1600.251953125</ele>
        <time>2015-07-09T09:11:15Z</time>
      </trkpt>
      <trkpt lat="42.81848" lon="-0.09798">
        <ele>1600.251953125</ele>
        <time>2015-07-09T09:11:29Z</time>
      </trkpt>
      <trkpt lat="42.81836" lon="-0.09808">
        <ele>1600.732421875</ele>
        <time>2015-07-09T09:11:43Z</time>
      </trkpt>
      <trkpt lat="42.81822" lon="-0.09819">
        <ele>1601.2131347656</ele>
        <time>2015-07-09T09:11:58Z</time>
      </trkpt>
      <trkpt lat="42.81806" lon="-0.09817">
        <ele>1602.1743164062</ele>
        <time>2015-07-09T09:12:12Z</time>
      </trkpt>
      <trkpt lat="42.81796" lon="-0.09817">
        <ele>1602.1743164062</ele>
        <time>2015-07-09T09:12:26Z</time>
      </trkpt>
      <trkpt lat="42.81794" lon="-0.09819">
        <ele>1602.1743164062</ele>
        <time>2015-07-09T09:12:28Z</time>
      </trkpt>
      <trkpt lat="42.81787" lon="-0.09825">
        <ele>1602.6550292969</ele>
        <time>2015-07-09T09:12:37Z</time>
      </trkpt>
      <trkpt lat="42.8178" lon="-0.09823">
        <ele>1603.1357421875</ele>
        <time>2015-07-09T09:12:45Z</time>
      </trkpt>
      <trkpt lat="42.81765" lon="-0.09819">
        <ele>1603.6164550781</ele>
        <time>2015-07-09T09:12:59Z</time>
      </trkpt>
      <trkpt lat="42.81761" lon="-0.0982">
        <ele>1604.0971679688</ele>
        <time>2015-07-09T09:13:06Z</time>
      </trkpt>
      <trkpt lat="42.81753" lon="-0.09822">
        <ele>1604.5776367188</ele>
        <time>2015-07-09T09:13:14Z</time>
      </trkpt>
      <trkpt lat="42.81741" lon="-0.0982">
        <ele>1604.5776367188</ele>
        <time>2015-07-09T09:13:28Z</time>
      </trkpt>
      <trkpt lat="42.81733" lon="-0.09834">
        <ele>1605.0583496094</ele>
        <time>2015-07-09T09:13:43Z</time>
      </trkpt>
      <trkpt lat="42.81731" lon="-0.09841">
        <ele>1605.5390625</ele>
        <time>2015-07-09T09:13:57Z</time>
      </trkpt>
      <trkpt lat="42.81725" lon="-0.09847">
        <ele>1606.5002441406</ele>
        <time>2015-07-09T09:14:07Z</time>
      </trkpt>
      <trkpt lat="42.81722" lon="-0.09845">
        <ele>1607.4616699219</ele>
        <time>2015-07-09T09:14:14Z</time>
      </trkpt>
      <trkpt lat="42.81707" lon="-0.09845">
        <ele>1606.5002441406</ele>
        <time>2015-07-09T09:14:28Z</time>
      </trkpt>
      <trkpt lat="42.81704" lon="-0.09844">
        <ele>1606.01953125</ele>
        <time>2015-07-09T09:14:31Z</time>
      </trkpt>
      <trkpt lat="42.81698" lon="-0.09842">
        <ele>1606.9809570312</ele>
        <time>2015-07-09T09:14:41Z</time>
      </trkpt>
      <trkpt lat="42.81687" lon="-0.09845">
        <ele>1607.9423828125</ele>
        <time>2015-07-09T09:15:00Z</time>
      </trkpt>
      <trkpt lat="42.81693" lon="-0.09859">
        <ele>1607.9423828125</ele>
        <time>2015-07-09T09:15:11Z</time>
      </trkpt>
      <trkpt lat="42.81698" lon="-0.09859">
        <ele>1607.4616699219</ele>
        <time>2015-07-09T09:15:14Z</time>
      </trkpt>
      <trkpt lat="42.81709" lon="-0.09868">
        <ele>1608.4228515625</ele>
        <time>2015-07-09T09:15:37Z</time>
      </trkpt>
      <trkpt lat="42.81712" lon="-0.09868">
        <ele>1609.8647460938</ele>
        <time>2015-07-09T09:15:42Z</time>
      </trkpt>
      <trkpt lat="42.8173" lon="-0.09819">
        <ele>1612.7490234375</ele>
        <time>2015-07-09T09:16:09Z</time>
      </trkpt>
    </trkseg>
  </trk>
  <trk>
    <name><![CDATA[ACTIVE LOG 006]]></name>
    <trkseg>
      <trkpt lat="42.81734" lon="-0.09808">
        <ele>1615.15234375</ele>
        <time>2015-07-09T09:16:16Z</time>
      </trkpt>
      <trkpt lat="42.81734" lon="-0.09808">
        <ele>1615.15234375</ele>
        <time>2015-07-09T09:16:18Z</time>
      </trkpt>
      <trkpt lat="42.81734" lon="-0.09808">
        <ele>1614.1909179688</ele>
        <time>2015-07-09T09:16:21Z</time>
      </trkpt>
      <trkpt lat="42.81734" lon="-0.09808">
        <ele>1617.5554199219</ele>
        <time>2015-07-09T09:16:38Z</time>
      </trkpt>
      <trkpt lat="42.81734" lon="-0.09808">
        <ele>1620.439453125</ele>
        <time>2015-07-09T09:17:01Z</time>
      </trkpt>
      <trkpt lat="42.81734" lon="-0.09808">
        <ele>1624.7653808594</ele>
        <time>2015-07-09T09:17:38Z</time>
      </trkpt>
      <trkpt lat="42.81734" lon="-0.09808">
        <ele>1628.6108398438</ele>
        <time>2015-07-09T09:18:00Z</time>
      </trkpt>
      <trkpt lat="42.81734" lon="-0.09808">
        <ele>1631.4946289062</ele>
        <time>2015-07-09T09:18:20Z</time>
      </trkpt>
      <trkpt lat="42.81734" lon="-0.09808">
        <ele>1634.859375</ele>
        <time>2015-07-09T09:18:44Z</time>
      </trkpt>
      <trkpt lat="42.81734" lon="-0.09808">
        <ele>1637.7431640625</ele>
        <time>2015-07-09T09:19:17Z</time>
      </trkpt>
      <trkpt lat="42.81734" lon="-0.09808">
        <ele>1641.1076660156</ele>
        <time>2015-07-09T09:19:41Z</time>
      </trkpt>
      <trkpt lat="42.81734" lon="-0.09808">
        <ele>1644.953125</ele>
        <time>2015-07-09T09:20:01Z</time>
      </trkpt>
      <trkpt lat="42.81734" lon="-0.09808">
        <ele>1647.8371582031</ele>
        <time>2015-07-09T09:20:19Z</time>
      </trkpt>
      <trkpt lat="42.81734" lon="-0.09808">
        <ele>1651.2016601562</ele>
        <time>2015-07-09T09:20:35Z</time>
      </trkpt>
      <trkpt lat="42.81734" lon="-0.09808">
        <ele>1654.0856933594</ele>
        <time>2015-07-09T09:20:55Z</time>
      </trkpt>
      <trkpt lat="42.81734" lon="-0.09808">
        <ele>1657.4501953125</ele>
        <time>2015-07-09T09:21:17Z</time>
      </trkpt>
      <trkpt lat="42.81734" lon="-0.09808">
        <ele>1660.8149414062</ele>
        <time>2015-07-09T09:21:50Z</time>
      </trkpt>
      <trkpt lat="42.81734" lon="-0.09808">
        <ele>1660.3342285156</ele>
        <time>2015-07-09T09:22:03Z</time>
      </trkpt>
      <trkpt lat="42.81734" lon="-0.09808">
        <ele>1661.7763671875</ele>
        <time>2015-07-09T09:22:17Z</time>
      </trkpt>
      <trkpt lat="42.81734" lon="-0.09808">
        <ele>1665.1408691406</ele>
        <time>2015-07-09T09:22:26Z</time>
      </trkpt>
      <trkpt lat="42.81734" lon="-0.09808">
        <ele>1668.0246582031</ele>
        <time>2015-07-09T09:22:44Z</time>
      </trkpt>
      <trkpt lat="42.81734" lon="-0.09808">
        <ele>1671.3891601562</ele>
        <time>2015-07-09T09:23:04Z</time>
      </trkpt>
      <trkpt lat="42.81734" lon="-0.09808">
        <ele>1674.75390625</ele>
        <time>2015-07-09T09:23:28Z</time>
      </trkpt>
      <trkpt lat="42.81734" lon="-0.09808">
        <ele>1678.1186523438</ele>
        <time>2015-07-09T09:23:52Z</time>
      </trkpt>
      <trkpt lat="42.81734" lon="-0.09808">
        <ele>1681.4831542969</ele>
        <time>2015-07-09T09:24:52Z</time>
      </trkpt>
      <trkpt lat="42.81734" lon="-0.09808">
        <ele>1682.9250488281</ele>
        <time>2015-07-09T09:24:56Z</time>
      </trkpt>
      <trkpt lat="42.81734" lon="-0.09808">
        <ele>1683.4057617188</ele>
        <time>2015-07-09T09:25:00Z</time>
      </trkpt>
      <trkpt lat="42.81781" lon="-0.0978">
        <ele>1683.4057617188</ele>
        <time>2015-07-09T09:25:13Z</time>
      </trkpt>
      <trkpt lat="42.81762" lon="-0.09773">
        <ele>1686.2897949219</ele>
        <time>2015-07-09T09:25:30Z</time>
      </trkpt>
      <trkpt lat="42.81765" lon="-0.09795">
        <ele>1687.7316894531</ele>
        <time>2015-07-09T09:25:41Z</time>
      </trkpt>
    </trkseg>
  </trk>
  <trk>
    <name><![CDATA[ACTIVE LOG 007]]></name>
    <trkseg>
      <trkpt lat="42.81759" lon="-0.09819">
        <ele>1690.6154785156</ele>
        <time>2015-07-09T09:26:09Z</time>
      </trkpt>
      <trkpt lat="42.81759" lon="-0.09819">
        <ele>1693.98046875</ele>
        <time>2015-07-09T09:26:48Z</time>
      </trkpt>
      <trkpt lat="42.81759" lon="-0.09819">
        <ele>1697.3449707031</ele>
        <time>2015-07-09T09:27:11Z</time>
      </trkpt>
      <trkpt lat="42.81759" lon="-0.09819">
        <ele>1700.7094726562</ele>
        <time>2015-07-09T09:27:39Z</time>
      </trkpt>
      <trkpt lat="42.81759" lon="-0.09819">
        <ele>1703.5935058594</ele>
        <time>2015-07-09T09:28:12Z</time>
      </trkpt>
      <trkpt lat="42.81759" lon="-0.09819">
        <ele>1706.4772949219</ele>
        <time>2015-07-09T09:28:31Z</time>
      </trkpt>
      <trkpt lat="42.81759" lon="-0.09819">
        <ele>1709.8420410156</ele>
        <time>2015-07-09T09:28:50Z</time>
      </trkpt>
      <trkpt lat="42.81759" lon="-0.09819">
        <ele>1712.7260742188</ele>
        <time>2015-07-09T09:29:17Z</time>
      </trkpt>
      <trkpt lat="42.81759" lon="-0.09819">
        <ele>1715.6101074219</ele>
        <time>2015-07-09T09:29:43Z</time>
      </trkpt>
      <trkpt lat="42.81759" lon="-0.09819">
        <ele>1717.5324707031</ele>
        <time>2015-07-09T09:29:48Z</time>
      </trkpt>
      <trkpt lat="42.81759" lon="-0.09819">
        <ele>1720.4165039062</ele>
        <time>2015-07-09T09:30:17Z</time>
      </trkpt>
      <trkpt lat="42.81759" lon="-0.09819">
        <ele>1723.7810058594</ele>
        <time>2015-07-09T09:30:35Z</time>
      </trkpt>
      <trkpt lat="42.81759" lon="-0.09819">
        <ele>1727.1459960938</ele>
        <time>2015-07-09T09:30:53Z</time>
      </trkpt>
    </trkseg>
  </trk>
  <trk>
    <name><![CDATA[ACTIVE LOG 008]]></name>
    <trkseg>
      <trkpt lat="42.81484" lon="-0.09828">
        <ele>1730.0297851562</ele>
        <time>2015-07-09T09:31:49Z</time>
      </trkpt>
      <trkpt lat="42.81439" lon="-0.09839">
        <ele>1730.5104980469</ele>
        <time>2015-07-09T09:31:50Z</time>
      </trkpt>
      <trkpt lat="42.81369" lon="-0.09854">
        <ele>1730.9912109375</ele>
        <time>2015-07-09T09:31:54Z</time>
      </trkpt>
      <trkpt lat="42.81253" lon="-0.09885">
        <ele>1732.4331054688</ele>
        <time>2015-07-09T09:32:09Z</time>
      </trkpt>
      <trkpt lat="42.81098" lon="-0.09928">
        <ele>1730.5104980469</ele>
        <time>2015-07-09T09:32:18Z</time>
      </trkpt>
      <trkpt lat="42.81047" lon="-0.09946">
        <ele>1732.4331054688</ele>
        <time>2015-07-09T09:32:32Z</time>
      </trkpt>
      <trkpt lat="42.81042" lon="-0.09944">
        <ele>1733.3942871094</ele>
        <time>2015-07-09T09:32:44Z</time>
      </trkpt>
      <trkpt lat="42.81027" lon="-0.09947">
        <ele>1734.8364257812</ele>
        <time>2015-07-09T09:32:58Z</time>
      </trkpt>
      <trkpt lat="42.81018" lon="-0.09947">
        <ele>1737.7202148438</ele>
        <time>2015-07-09T09:33:12Z</time>
      </trkpt>
      <trkpt lat="42.81011" lon="-0.09951">
        <ele>1738.681640625</ele>
        <time>2015-07-09T09:33:22Z</time>
      </trkpt>
      <trkpt lat="42.81002" lon="-0.09955">
        <ele>1739.162109375</ele>
        <time>2015-07-09T09:33:34Z</time>
      </trkpt>
      <trkpt lat="42.80997" lon="-0.09956">
        <ele>1741.5656738281</ele>
        <time>2015-07-09T09:33:53Z</time>
      </trkpt>
      <trkpt lat="42.8098" lon="-0.09965">
        <ele>1743.0075683594</ele>
        <time>2015-07-09T09:34:09Z</time>
      </trkpt>
      <trkpt lat="42.80978" lon="-0.09965">
        <ele>1743.0075683594</ele>
        <time>2015-07-09T09:34:11Z</time>
      </trkpt>
      <trkpt lat="42.8097" lon="-0.09965">
        <ele>1744.4494628906</ele>
        <time>2015-07-09T09:34:22Z</time>
      </trkpt>
      <trkpt lat="42.80961" lon="-0.09971">
        <ele>1746.3723144531</ele>
        <time>2015-07-09T09:34:33Z</time>
      </trkpt>
      <trkpt lat="42.80954" lon="-0.09982">
        <ele>1749.7368164062</ele>
        <time>2015-07-09T09:34:48Z</time>
      </trkpt>
      <trkpt lat="42.80951" lon="-0.09988">
        <ele>1751.6594238281</ele>
        <time>2015-07-09T09:34:57Z</time>
      </trkpt>
      <trkpt lat="42.80948" lon="-0.09996">
        <ele>1752.6206054688</ele>
        <time>2015-07-09T09:35:07Z</time>
      </trkpt>
      <trkpt lat="42.80944" lon="-0.09997">
        <ele>1754.5432128906</ele>
        <time>2015-07-09T09:35:20Z</time>
      </trkpt>
      <trkpt lat="42.80944" lon="-0.10007">
        <ele>1756.4660644531</ele>
        <time>2015-07-09T09:35:31Z</time>
      </trkpt>
      <trkpt lat="42.8094" lon="-0.10005">
        <ele>1758.388671875</ele>
        <time>2015-07-09T09:35:41Z</time>
      </trkpt>
      <trkpt lat="42.80934" lon="-0.09999">
        <ele>1759.8305664062</ele>
        <time>2015-07-09T09:35:51Z</time>
      </trkpt>
      <trkpt lat="42.80927" lon="-0.09996">
        <ele>1760.7919921875</ele>
        <time>2015-07-09T09:36:00Z</time>
      </trkpt>
      <trkpt lat="42.80913" lon="-0.09996">
        <ele>1761.2727050781</ele>
        <time>2015-07-09T09:36:14Z</time>
      </trkpt>
      <trkpt lat="42.80912" lon="-0.09996">
        <ele>1761.7534179688</ele>
        <time>2015-07-09T09:36:15Z</time>
      </trkpt>
      <trkpt lat="42.809" lon="-0.10003">
        <ele>1761.7534179688</ele>
        <time>2015-07-09T09:36:29Z</time>
      </trkpt>
      <trkpt lat="42.80899" lon="-0.10003">
        <ele>1761.2727050781</ele>
        <time>2015-07-09T09:36:30Z</time>
      </trkpt>
      <trkpt lat="42.80887" lon="-0.09994">
        <ele>1763.1953125</ele>
        <time>2015-07-09T09:36:46Z</time>
      </trkpt>
      <trkpt lat="42.80886" lon="-0.09982">
        <ele>1764.6372070312</ele>
        <time>2015-07-09T09:37:01Z</time>
      </trkpt>
      <trkpt lat="42.80883" lon="-0.09976">
        <ele>1765.5986328125</ele>
        <time>2015-07-09T09:37:17Z</time>
      </trkpt>
      <trkpt lat="42.80879" lon="-0.09974">
        <ele>1765.1179199219</ele>
        <time>2015-07-09T09:37:22Z</time>
      </trkpt>
      <trkpt lat="42.80876" lon="-0.09972">
        <ele>1765.5986328125</ele>
        <time>2015-07-09T09:37:25Z</time>
      </trkpt>
      <trkpt lat="42.80862" lon="-0.09962">
        <ele>1765.1179199219</ele>
        <time>2015-07-09T09:37:41Z</time>
      </trkpt>
      <trkpt lat="42.80854" lon="-0.09959">
        <ele>1767.0405273438</ele>
        <time>2015-07-09T09:37:50Z</time>
      </trkpt>
      <trkpt lat="42.80854" lon="-0.09959">
        <ele>1767.0405273438</ele>
        <time>2015-07-09T09:37:52Z</time>
      </trkpt>
      <trkpt lat="42.80848" lon="-0.09949">
        <ele>1768.482421875</ele>
        <time>2015-07-09T09:38:04Z</time>
      </trkpt>
      <trkpt lat="42.80843" lon="-0.09951">
        <ele>1769.9243164062</ele>
        <time>2015-07-09T09:38:09Z</time>
      </trkpt>
      <trkpt lat="42.80827" lon="-0.09961">
        <ele>1771.8469238281</ele>
        <time>2015-07-09T09:38:26Z</time>
      </trkpt>
      <trkpt lat="42.80823" lon="-0.09959">
        <ele>1773.2893066406</ele>
        <time>2015-07-09T09:38:34Z</time>
      </trkpt>
      <trkpt lat="42.80817" lon="-0.09955">
        <ele>1775.2116699219</ele>
        <time>2015-07-09T09:38:46Z</time>
      </trkpt>
      <trkpt lat="42.8081" lon="-0.09952">
        <ele>1776.6538085938</ele>
        <time>2015-07-09T09:38:58Z</time>
      </trkpt>
      <trkpt lat="42.80808" lon="-0.09948">
        <ele>1779.5375976562</ele>
        <time>2015-07-09T09:39:09Z</time>
      </trkpt>
      <trkpt lat="42.80802" lon="-0.09943">
        <ele>1781.4602050781</ele>
        <time>2015-07-09T09:39:35Z</time>
      </trkpt>
      <trkpt lat="42.80792" lon="-0.09939">
        <ele>1781.9409179688</ele>
        <time>2015-07-09T09:39:57Z</time>
      </trkpt>
      <trkpt lat="42.80785" lon="-0.0994">
        <ele>1783.8635253906</ele>
        <time>2015-07-09T09:40:13Z</time>
      </trkpt>
      <trkpt lat="42.80781" lon="-0.09941">
        <ele>1783.8635253906</ele>
        <time>2015-07-09T09:40:28Z</time>
      </trkpt>
      <trkpt lat="42.8077" lon="-0.09953">
        <ele>1783.8635253906</ele>
        <time>2015-07-09T09:40:44Z</time>
      </trkpt>
      <trkpt lat="42.80766" lon="-0.09961">
        <ele>1783.3828125</ele>
        <time>2015-07-09T09:40:51Z</time>
      </trkpt>
      <trkpt lat="42.80762" lon="-0.09969">
        <ele>1783.8635253906</ele>
        <time>2015-07-09T09:41:07Z</time>
      </trkpt>
      <trkpt lat="42.8076" lon="-0.09975">
        <ele>1783.8635253906</ele>
        <time>2015-07-09T09:41:17Z</time>
      </trkpt>
      <trkpt lat="42.80762" lon="-0.09985">
        <ele>1787.2280273438</ele>
        <time>2015-07-09T09:41:49Z</time>
      </trkpt>
      <trkpt lat="42.80762" lon="-0.0999">
        <ele>1788.1896972656</ele>
        <time>2015-07-09T09:41:56Z</time>
      </trkpt>
      <trkpt lat="42.80765" lon="-0.09996">
        <ele>1791.0734863281</ele>
        <time>2015-07-09T09:42:10Z</time>
      </trkpt>
      <trkpt lat="42.80766" lon="-0.10004">
        <ele>1792.515625</ele>
        <time>2015-07-09T09:42:24Z</time>
      </trkpt>
      <trkpt lat="42.80761" lon="-0.10011">
        <ele>1794.4379882812</ele>
        <time>2015-07-09T09:42:46Z</time>
      </trkpt>
      <trkpt lat="42.80759" lon="-0.10013">
        <ele>1794.4379882812</ele>
        <time>2015-07-09T09:42:49Z</time>
      </trkpt>
      <trkpt lat="42.80749" lon="-0.10035">
        <ele>1797.3220214844</ele>
        <time>2015-07-09T09:43:08Z</time>
      </trkpt>
      <trkpt lat="42.80748" lon="-0.10046">
        <ele>1797.802734375</ele>
        <time>2015-07-09T09:43:19Z</time>
      </trkpt>
      <trkpt lat="42.80743" lon="-0.10056">
        <ele>1798.283203125</ele>
        <time>2015-07-09T09:43:31Z</time>
      </trkpt>
      <trkpt lat="42.80738" lon="-0.10066">
        <ele>1801.1672363281</ele>
        <time>2015-07-09T09:43:48Z</time>
      </trkpt>
      <trkpt lat="42.80733" lon="-0.10079">
        <ele>1802.6091308594</ele>
        <time>2015-07-09T09:44:00Z</time>
      </trkpt>
      <trkpt lat="42.80727" lon="-0.10092">
        <ele>1804.5319824219</ele>
        <time>2015-07-09T09:44:15Z</time>
      </trkpt>
      <trkpt lat="42.80723" lon="-0.10101">
        <ele>1805.9738769531</ele>
        <time>2015-07-09T09:44:26Z</time>
      </trkpt>
      <trkpt lat="42.80722" lon="-0.10103">
        <ele>1807.8967285156</ele>
        <time>2015-07-09T09:44:29Z</time>
      </trkpt>
      <trkpt lat="42.8072" lon="-0.10111">
        <ele>1808.8579101562</ele>
        <time>2015-07-09T09:45:14Z</time>
      </trkpt>
      <trkpt lat="42.80727" lon="-0.10111">
        <ele>1810.2998046875</ele>
        <time>2015-07-09T09:45:24Z</time>
      </trkpt>
      <trkpt lat="42.80736" lon="-0.10107">
        <ele>1813.1838378906</ele>
        <time>2015-07-09T09:45:38Z</time>
      </trkpt>
      <trkpt lat="42.80742" lon="-0.10116">
        <ele>1815.1064453125</ele>
        <time>2015-07-09T09:45:53Z</time>
      </trkpt>
      <trkpt lat="42.80742" lon="-0.10117">
        <ele>1815.5871582031</ele>
        <time>2015-07-09T09:45:54Z</time>
      </trkpt>
      <trkpt lat="42.8075" lon="-0.10129">
        <ele>1817.990234375</ele>
        <time>2015-07-09T09:46:12Z</time>
      </trkpt>
      <trkpt lat="42.80749" lon="-0.10141">
        <ele>1817.0290527344</ele>
        <time>2015-07-09T09:46:25Z</time>
      </trkpt>
      <trkpt lat="42.80749" lon="-0.1015">
        <ele>1819.9128417969</ele>
        <time>2015-07-09T09:46:37Z</time>
      </trkpt>
      <trkpt lat="42.80737" lon="-0.10166">
        <ele>1821.3549804688</ele>
        <time>2015-07-09T09:46:54Z</time>
      </trkpt>
      <trkpt lat="42.80732" lon="-0.10174">
        <ele>1823.2778320312</ele>
        <time>2015-07-09T09:47:04Z</time>
      </trkpt>
      <trkpt lat="42.80722" lon="-0.10179">
        <ele>1825.6809082031</ele>
        <time>2015-07-09T09:47:18Z</time>
      </trkpt>
      <trkpt lat="42.80723" lon="-0.10187">
        <ele>1828.0842285156</ele>
        <time>2015-07-09T09:47:30Z</time>
      </trkpt>
      <trkpt lat="42.80734" lon="-0.10195">
        <ele>1830.0068359375</ele>
        <time>2015-07-09T09:47:49Z</time>
      </trkpt>
      <trkpt lat="42.80736" lon="-0.102">
        <ele>1832.41015625</ele>
        <time>2015-07-09T09:48:01Z</time>
      </trkpt>
      <trkpt lat="42.80729" lon="-0.10206">
        <ele>1835.2939453125</ele>
        <time>2015-07-09T09:48:14Z</time>
      </trkpt>
      <trkpt lat="42.80723" lon="-0.10211">
        <ele>1837.216796875</ele>
        <time>2015-07-09T09:48:26Z</time>
      </trkpt>
      <trkpt lat="42.80713" lon="-0.10219">
        <ele>1838.6589355469</ele>
        <time>2015-07-09T09:48:42Z</time>
      </trkpt>
      <trkpt lat="42.80707" lon="-0.10227">
        <ele>1840.1008300781</ele>
        <time>2015-07-09T09:48:53Z</time>
      </trkpt>
      <trkpt lat="42.80701" lon="-0.10237">
        <ele>1841.0620117188</ele>
        <time>2015-07-09T09:49:06Z</time>
      </trkpt>
      <trkpt lat="42.80696" lon="-0.1025">
        <ele>1844.9072265625</ele>
        <time>2015-07-09T09:49:20Z</time>
      </trkpt>
      <trkpt lat="42.80695" lon="-0.10266">
        <ele>1848.2717285156</ele>
        <time>2015-07-09T09:49:45Z</time>
      </trkpt>
      <trkpt lat="42.80699" lon="-0.10265">
        <ele>1848.2717285156</ele>
        <time>2015-07-09T09:49:48Z</time>
      </trkpt>
      <trkpt lat="42.80719" lon="-0.10261">
        <ele>1851.6364746094</ele>
        <time>2015-07-09T09:50:04Z</time>
      </trkpt>
      <trkpt lat="42.80723" lon="-0.10261">
        <ele>1854.0400390625</ele>
        <time>2015-07-09T09:50:22Z</time>
      </trkpt>
      <trkpt lat="42.80732" lon="-0.10259">
        <ele>1855.4819335938</ele>
        <time>2015-07-09T09:50:47Z</time>
      </trkpt>
      <trkpt lat="42.80733" lon="-0.10258">
        <ele>1855.4819335938</ele>
        <time>2015-07-09T09:51:12Z</time>
      </trkpt>
      <trkpt lat="42.80734" lon="-0.10256">
        <ele>1855.0012207031</ele>
        <time>2015-07-09T09:51:26Z</time>
      </trkpt>
      <trkpt lat="42.80733" lon="-0.10257">
        <ele>1854.5205078125</ele>
        <time>2015-07-09T09:52:18Z</time>
      </trkpt>
      <trkpt lat="42.80733" lon="-0.10256">
        <ele>1857.8852539062</ele>
        <time>2015-07-09T09:55:26Z</time>
      </trkpt>
      <trkpt lat="42.80734" lon="-0.10256">
        <ele>1861.2497558594</ele>
        <time>2015-07-09T09:57:03Z</time>
      </trkpt>
      <trkpt lat="42.80731" lon="-0.10256">
        <ele>1862.6916503906</ele>
        <time>2015-07-09T10:03:47Z</time>
      </trkpt>
      <trkpt lat="42.80733" lon="-0.10259">
        <ele>1866.0561523438</ele>
        <time>2015-07-09T10:07:15Z</time>
      </trkpt>
      <trkpt lat="42.80734" lon="-0.10255">
        <ele>1869.4211425781</ele>
        <time>2015-07-09T10:12:11Z</time>
      </trkpt>
      <trkpt lat="42.80727" lon="-0.10256">
        <ele>1868.9404296875</ele>
        <time>2015-07-09T10:17:41Z</time>
      </trkpt>
      <trkpt lat="42.80731" lon="-0.10256">
        <ele>1867.9787597656</ele>
        <time>2015-07-09T10:21:06Z</time>
      </trkpt>
      <trkpt lat="42.8073" lon="-0.10256">
        <ele>1870.8630371094</ele>
        <time>2015-07-09T10:23:22Z</time>
      </trkpt>
      <trkpt lat="42.80732" lon="-0.10257">
        <ele>1870.8630371094</ele>
        <time>2015-07-09T10:26:20Z</time>
      </trkpt>
      <trkpt lat="42.80732" lon="-0.10257">
        <ele>1871.82421875</ele>
        <time>2015-07-09T10:28:41Z</time>
      </trkpt>
      <trkpt lat="42.80739" lon="-0.10255">
        <ele>1868.9404296875</ele>
        <time>2015-07-09T10:30:46Z</time>
      </trkpt>
      <trkpt lat="42.80761" lon="-0.10288">
        <ele>1866.0561523438</ele>
        <time>2015-07-09T10:31:49Z</time>
      </trkpt>
      <trkpt lat="42.80773" lon="-0.10289">
        <ele>1862.6916503906</ele>
        <time>2015-07-09T10:32:23Z</time>
      </trkpt>
      <trkpt lat="42.80759" lon="-0.10269">
        <ele>1859.3271484375</ele>
        <time>2015-07-09T10:32:53Z</time>
      </trkpt>
      <trkpt lat="42.80733" lon="-0.10256">
        <ele>1859.3271484375</ele>
        <time>2015-07-09T10:36:30Z</time>
      </trkpt>
      <trkpt lat="42.80733" lon="-0.10258">
        <ele>1858.8464355469</ele>
        <time>2015-07-09T10:37:24Z</time>
      </trkpt>
      <trkpt lat="42.80734" lon="-0.10258">
        <ele>1861.73046875</ele>
        <time>2015-07-09T10:40:14Z</time>
      </trkpt>
      <trkpt lat="42.80734" lon="-0.10258">
        <ele>1861.2497558594</ele>
        <time>2015-07-09T10:40:32Z</time>
      </trkpt>
      <trkpt lat="42.80731" lon="-0.1026">
        <ele>1864.1335449219</ele>
        <time>2015-07-09T10:43:22Z</time>
      </trkpt>
      <trkpt lat="42.80731" lon="-0.1026">
        <ele>1867.017578125</ele>
        <time>2015-07-09T10:47:15Z</time>
      </trkpt>
      <trkpt lat="42.80738" lon="-0.10263">
        <ele>1867.9787597656</ele>
        <time>2015-07-09T10:57:46Z</time>
      </trkpt>
      <trkpt lat="42.80734" lon="-0.10261">
        <ele>1867.9787597656</ele>
        <time>2015-07-09T10:59:43Z</time>
      </trkpt>
      <trkpt lat="42.80732" lon="-0.1026">
        <ele>1867.498046875</ele>
        <time>2015-07-09T11:01:34Z</time>
      </trkpt>
      <trkpt lat="42.80732" lon="-0.10259">
        <ele>1868.9404296875</ele>
        <time>2015-07-09T11:02:47Z</time>
      </trkpt>
      <trkpt lat="42.80731" lon="-0.10259">
        <ele>1868.9404296875</ele>
        <time>2015-07-09T11:06:04Z</time>
      </trkpt>
      <trkpt lat="42.80731" lon="-0.1026">
        <ele>1871.82421875</ele>
        <time>2015-07-09T11:09:28Z</time>
      </trkpt>
      <trkpt lat="42.80733" lon="-0.10261">
        <ele>1875.1887207031</ele>
        <time>2015-07-09T11:22:54Z</time>
      </trkpt>
      <trkpt lat="42.80734" lon="-0.10261">
        <ele>1875.6694335938</ele>
        <time>2015-07-09T11:24:12Z</time>
      </trkpt>
      <trkpt lat="42.80722" lon="-0.10264">
        <ele>1876.1501464844</ele>
        <time>2015-07-09T11:25:39Z</time>
      </trkpt>
      <trkpt lat="42.80714" lon="-0.10267">
        <ele>1876.1501464844</ele>
        <time>2015-07-09T11:25:55Z</time>
      </trkpt>
      <trkpt lat="42.80707" lon="-0.10269">
        <ele>1874.2275390625</ele>
        <time>2015-07-09T11:26:19Z</time>
      </trkpt>
      <trkpt lat="42.80694" lon="-0.10271">
        <ele>1870.8630371094</ele>
        <time>2015-07-09T11:26:36Z</time>
      </trkpt>
      <trkpt lat="42.80683" lon="-0.10273">
        <ele>1869.4211425781</ele>
        <time>2015-07-09T11:26:55Z</time>
      </trkpt>
      <trkpt lat="42.80679" lon="-0.10271">
        <ele>1867.9787597656</ele>
        <time>2015-07-09T11:27:08Z</time>
      </trkpt>
      <trkpt lat="42.80682" lon="-0.10266">
        <ele>1866.0561523438</ele>
        <time>2015-07-09T11:27:24Z</time>
      </trkpt>
      <trkpt lat="42.80686" lon="-0.1026">
        <ele>1864.6142578125</ele>
        <time>2015-07-09T11:27:34Z</time>
      </trkpt>
      <trkpt lat="42.80689" lon="-0.10255">
        <ele>1863.6528320312</ele>
        <time>2015-07-09T11:27:42Z</time>
      </trkpt>
      <trkpt lat="42.80694" lon="-0.10246">
        <ele>1863.6528320312</ele>
        <time>2015-07-09T11:27:56Z</time>
      </trkpt>
      <trkpt lat="42.80696" lon="-0.10242">
        <ele>1861.73046875</ele>
        <time>2015-07-09T11:28:01Z</time>
      </trkpt>
      <trkpt lat="42.80705" lon="-0.10227">
        <ele>1859.8076171875</ele>
        <time>2015-07-09T11:28:20Z</time>
      </trkpt>
      <trkpt lat="42.80715" lon="-0.10214">
        <ele>1857.8852539062</ele>
        <time>2015-07-09T11:28:38Z</time>
      </trkpt>
      <trkpt lat="42.80721" lon="-0.10213">
        <ele>1856.923828125</ele>
        <time>2015-07-09T11:28:49Z</time>
      </trkpt>
      <trkpt lat="42.8072" lon="-0.10212">
        <ele>1856.4431152344</ele>
        <time>2015-07-09T11:28:59Z</time>
      </trkpt>
      <trkpt lat="42.80719" lon="-0.10211">
        <ele>1857.8852539062</ele>
        <time>2015-07-09T11:29:13Z</time>
      </trkpt>
      <trkpt lat="42.80727" lon="-0.10208">
        <ele>1857.4045410156</ele>
        <time>2015-07-09T11:29:44Z</time>
      </trkpt>
      <trkpt lat="42.80728" lon="-0.10206">
        <ele>1855.9624023438</ele>
        <time>2015-07-09T11:29:47Z</time>
      </trkpt>
      <trkpt lat="42.80734" lon="-0.102">
        <ele>1854.5205078125</ele>
        <time>2015-07-09T11:30:04Z</time>
      </trkpt>
      <trkpt lat="42.80734" lon="-0.10196">
        <ele>1852.5979003906</ele>
        <time>2015-07-09T11:30:17Z</time>
      </trkpt>
      <trkpt lat="42.80727" lon="-0.10189">
        <ele>1849.2331542969</ele>
        <time>2015-07-09T11:30:36Z</time>
      </trkpt>
      <trkpt lat="42.80725" lon="-0.10187">
        <ele>1848.2717285156</ele>
        <time>2015-07-09T11:30:40Z</time>
      </trkpt>
      <trkpt lat="42.8072" lon="-0.10184">
        <ele>1848.2717285156</ele>
        <time>2015-07-09T11:30:51Z</time>
      </trkpt>
      <trkpt lat="42.80725" lon="-0.10177">
        <ele>1846.3493652344</ele>
        <time>2015-07-09T11:31:05Z</time>
      </trkpt>
      <trkpt lat="42.80734" lon="-0.10169">
        <ele>1843.4653320312</ele>
        <time>2015-07-09T11:31:21Z</time>
      </trkpt>
      <trkpt lat="42.80736" lon="-0.10165">
        <ele>1842.5041503906</ele>
        <time>2015-07-09T11:31:25Z</time>
      </trkpt>
      <trkpt lat="42.80748" lon="-0.10147">
        <ele>1841.5427246094</ele>
        <time>2015-07-09T11:31:44Z</time>
      </trkpt>
      <trkpt lat="42.80757" lon="-0.10132">
        <ele>1841.5427246094</ele>
        <time>2015-07-09T11:32:01Z</time>
      </trkpt>
      <trkpt lat="42.80757" lon="-0.10116">
        <ele>1841.0620117188</ele>
        <time>2015-07-09T11:32:14Z</time>
      </trkpt>
      <trkpt lat="42.80749" lon="-0.10105">
        <ele>1838.1782226562</ele>
        <time>2015-07-09T11:32:33Z</time>
      </trkpt>
      <trkpt lat="42.80748" lon="-0.10096">
        <ele>1835.7746582031</ele>
        <time>2015-07-09T11:32:45Z</time>
      </trkpt>
      <trkpt lat="42.80734" lon="-0.10106">
        <ele>1834.3327636719</ele>
        <time>2015-07-09T11:33:02Z</time>
      </trkpt>
      <trkpt lat="42.80725" lon="-0.10108">
        <ele>1831.4487304688</ele>
        <time>2015-07-09T11:33:17Z</time>
      </trkpt>
      <trkpt lat="42.80721" lon="-0.10105">
        <ele>1829.5261230469</ele>
        <time>2015-07-09T11:33:32Z</time>
      </trkpt>
      <trkpt lat="42.80726" lon="-0.1009">
        <ele>1827.603515625</ele>
        <time>2015-07-09T11:33:48Z</time>
      </trkpt>
      <trkpt lat="42.80734" lon="-0.10076">
        <ele>1824.7197265625</ele>
        <time>2015-07-09T11:34:04Z</time>
      </trkpt>
      <trkpt lat="42.80735" lon="-0.10074">
        <ele>1825.2001953125</ele>
        <time>2015-07-09T11:34:06Z</time>
      </trkpt>
      <trkpt lat="42.80743" lon="-0.10052">
        <ele>1823.7583007812</ele>
        <time>2015-07-09T11:34:25Z</time>
      </trkpt>
      <trkpt lat="42.80748" lon="-0.1004">
        <ele>1820.8745117188</ele>
        <time>2015-07-09T11:34:39Z</time>
      </trkpt>
      <trkpt lat="42.80748" lon="-0.1003">
        <ele>1820.8745117188</ele>
        <time>2015-07-09T11:34:46Z</time>
      </trkpt>
      <trkpt lat="42.80751" lon="-0.1002">
        <ele>1820.3937988281</ele>
        <time>2015-07-09T11:34:54Z</time>
      </trkpt>
      <trkpt lat="42.80762" lon="-0.10007">
        <ele>1818.4709472656</ele>
        <time>2015-07-09T11:35:12Z</time>
      </trkpt>
      <trkpt lat="42.80763" lon="-0.10006">
        <ele>1817.5095214844</ele>
        <time>2015-07-09T11:35:14Z</time>
      </trkpt>
      <trkpt lat="42.80776" lon="-0.09988">
        <ele>1816.5483398438</ele>
        <time>2015-07-09T11:35:33Z</time>
      </trkpt>
      <trkpt lat="42.80793" lon="-0.0998">
        <ele>1814.6257324219</ele>
        <time>2015-07-09T11:35:51Z</time>
      </trkpt>
      <trkpt lat="42.80795" lon="-0.09969">
        <ele>1811.2612304688</ele>
        <time>2015-07-09T11:36:08Z</time>
      </trkpt>
      <trkpt lat="42.80795" lon="-0.09957">
        <ele>1810.2998046875</ele>
        <time>2015-07-09T11:36:23Z</time>
      </trkpt>
      <trkpt lat="42.80798" lon="-0.09944">
        <ele>1808.3771972656</ele>
        <time>2015-07-09T11:36:42Z</time>
      </trkpt>
      <trkpt lat="42.80801" lon="-0.09937">
        <ele>1807.8967285156</ele>
        <time>2015-07-09T11:37:08Z</time>
      </trkpt>
      <trkpt lat="42.808" lon="-0.09937">
        <ele>1807.416015625</ele>
        <time>2015-07-09T11:37:09Z</time>
      </trkpt>
      <trkpt lat="42.80791" lon="-0.09937">
        <ele>1809.3386230469</ele>
        <time>2015-07-09T11:37:24Z</time>
      </trkpt>
      <trkpt lat="42.80792" lon="-0.09939">
        <ele>1809.3386230469</ele>
        <time>2015-07-09T11:37:38Z</time>
      </trkpt>
      <trkpt lat="42.80792" lon="-0.09938">
        <ele>1808.8579101562</ele>
        <time>2015-07-09T11:37:40Z</time>
      </trkpt>
      <trkpt lat="42.80795" lon="-0.09938">
        <ele>1809.3386230469</ele>
        <time>2015-07-09T11:37:52Z</time>
      </trkpt>
      <trkpt lat="42.80801" lon="-0.0994">
        <ele>1809.3386230469</ele>
        <time>2015-07-09T11:38:00Z</time>
      </trkpt>
      <trkpt lat="42.80805" lon="-0.09941">
        <ele>1808.3771972656</ele>
        <time>2015-07-09T11:38:06Z</time>
      </trkpt>
      <trkpt lat="42.80808" lon="-0.09959">
        <ele>1805.9738769531</ele>
        <time>2015-07-09T11:38:22Z</time>
      </trkpt>
      <trkpt lat="42.80809" lon="-0.09967">
        <ele>1804.5319824219</ele>
        <time>2015-07-09T11:38:29Z</time>
      </trkpt>
      <trkpt lat="42.80811" lon="-0.09971">
        <ele>1805.9738769531</ele>
        <time>2015-07-09T11:38:32Z</time>
      </trkpt>
      <trkpt lat="42.80823" lon="-0.09983">
        <ele>1804.0515136719</ele>
        <time>2015-07-09T11:38:50Z</time>
      </trkpt>
      <trkpt lat="42.80832" lon="-0.09975">
        <ele>1801.6479492188</ele>
        <time>2015-07-09T11:39:05Z</time>
      </trkpt>
      <trkpt lat="42.80837" lon="-0.09963">
        <ele>1800.6865234375</ele>
        <time>2015-07-09T11:39:19Z</time>
      </trkpt>
      <trkpt lat="42.80844" lon="-0.09961">
        <ele>1798.7639160156</ele>
        <time>2015-07-09T11:39:33Z</time>
      </trkpt>
      <trkpt lat="42.80856" lon="-0.09964">
        <ele>1796.8413085938</ele>
        <time>2015-07-09T11:39:49Z</time>
      </trkpt>
      <trkpt lat="42.80869" lon="-0.09971">
        <ele>1794.9187011719</ele>
        <time>2015-07-09T11:40:06Z</time>
      </trkpt>
      <trkpt lat="42.80884" lon="-0.09983">
        <ele>1795.3994140625</ele>
        <time>2015-07-09T11:40:25Z</time>
      </trkpt>
      <trkpt lat="42.80884" lon="-0.09996">
        <ele>1794.9187011719</ele>
        <time>2015-07-09T11:40:40Z</time>
      </trkpt>
      <trkpt lat="42.80891" lon="-0.10002">
        <ele>1793.9575195312</ele>
        <time>2015-07-09T11:40:54Z</time>
      </trkpt>
      <trkpt lat="42.80907" lon="-0.10004">
        <ele>1792.99609375</ele>
        <time>2015-07-09T11:41:11Z</time>
      </trkpt>
      <trkpt lat="42.80915" lon="-0.09999">
        <ele>1792.515625</ele>
        <time>2015-07-09T11:41:19Z</time>
      </trkpt>
      <trkpt lat="42.80923" lon="-0.09996">
        <ele>1791.5541992188</ele>
        <time>2015-07-09T11:41:27Z</time>
      </trkpt>
      <trkpt lat="42.80934" lon="-0.10003">
        <ele>1792.515625</ele>
        <time>2015-07-09T11:41:42Z</time>
      </trkpt>
      <trkpt lat="42.80936" lon="-0.10006">
        <ele>1790.5927734375</ele>
        <time>2015-07-09T11:41:45Z</time>
      </trkpt>
      <trkpt lat="42.80942" lon="-0.10013">
        <ele>1789.1508789062</ele>
        <time>2015-07-09T11:41:57Z</time>
      </trkpt>
      <trkpt lat="42.80943" lon="-0.10003">
        <ele>1788.1896972656</ele>
        <time>2015-07-09T11:42:08Z</time>
      </trkpt>
      <trkpt lat="42.80947" lon="-0.09995">
        <ele>1785.7861328125</ele>
        <time>2015-07-09T11:42:21Z</time>
      </trkpt>
      <trkpt lat="42.80956" lon="-0.09996">
        <ele>1785.3054199219</ele>
        <time>2015-07-09T11:42:36Z</time>
      </trkpt>
      <trkpt lat="42.80961" lon="-0.09987">
        <ele>1782.4216308594</ele>
        <time>2015-07-09T11:42:47Z</time>
      </trkpt>
      <trkpt lat="42.80971" lon="-0.0998">
        <ele>1779.5375976562</ele>
        <time>2015-07-09T11:43:02Z</time>
      </trkpt>
      <trkpt lat="42.80977" lon="-0.09971">
        <ele>1777.6149902344</ele>
        <time>2015-07-09T11:43:15Z</time>
      </trkpt>
      <trkpt lat="42.80984" lon="-0.09966">
        <ele>1777.6149902344</ele>
        <time>2015-07-09T11:43:31Z</time>
      </trkpt>
      <trkpt lat="42.80993" lon="-0.09963">
        <ele>1776.1730957031</ele>
        <time>2015-07-09T11:43:44Z</time>
      </trkpt>
      <trkpt lat="42.81008" lon="-0.09958">
        <ele>1774.2504882812</ele>
        <time>2015-07-09T11:44:02Z</time>
      </trkpt>
      <trkpt lat="42.81015" lon="-0.09955">
        <ele>1773.2893066406</ele>
        <time>2015-07-09T11:44:10Z</time>
      </trkpt>
      <trkpt lat="42.8104" lon="-0.09951">
        <ele>1770.4050292969</ele>
        <time>2015-07-09T11:44:33Z</time>
      </trkpt>
      <trkpt lat="42.81058" lon="-0.09951">
        <ele>1768.9631347656</ele>
        <time>2015-07-09T11:44:51Z</time>
      </trkpt>
      <trkpt lat="42.81082" lon="-0.09946">
        <ele>1766.5598144531</ele>
        <time>2015-07-09T11:45:12Z</time>
      </trkpt>
      <trkpt lat="42.81095" lon="-0.09949">
        <ele>1765.1179199219</ele>
        <time>2015-07-09T11:45:28Z</time>
      </trkpt>
      <trkpt lat="42.81098" lon="-0.09948">
        <ele>1764.6372070312</ele>
        <time>2015-07-09T11:45:41Z</time>
      </trkpt>
      <trkpt lat="42.81105" lon="-0.09945">
        <ele>1763.1953125</ele>
        <time>2015-07-09T11:46:05Z</time>
      </trkpt>
      <trkpt lat="42.81107" lon="-0.0995">
        <ele>1763.67578125</ele>
        <time>2015-07-09T11:46:30Z</time>
      </trkpt>
      <trkpt lat="42.81115" lon="-0.09953">
        <ele>1763.1953125</ele>
        <time>2015-07-09T11:46:44Z</time>
      </trkpt>
      <trkpt lat="42.81115" lon="-0.09953">
        <ele>1763.67578125</ele>
        <time>2015-07-09T11:47:04Z</time>
      </trkpt>
      <trkpt lat="42.81119" lon="-0.09962">
        <ele>1762.7145996094</ele>
        <time>2015-07-09T11:47:18Z</time>
      </trkpt>
      <trkpt lat="42.81129" lon="-0.09963">
        <ele>1761.2727050781</ele>
        <time>2015-07-09T11:47:32Z</time>
      </trkpt>
      <trkpt lat="42.81137" lon="-0.09961">
        <ele>1759.8305664062</ele>
        <time>2015-07-09T11:47:43Z</time>
      </trkpt>
      <trkpt lat="42.81142" lon="-0.0996">
        <ele>1756.9467773438</ele>
        <time>2015-07-09T11:47:51Z</time>
      </trkpt>
      <trkpt lat="42.81148" lon="-0.09959">
        <ele>1755.5046386719</ele>
        <time>2015-07-09T11:48:05Z</time>
      </trkpt>
      <trkpt lat="42.81152" lon="-0.09953">
        <ele>1754.0627441406</ele>
        <time>2015-07-09T11:48:17Z</time>
      </trkpt>
      <trkpt lat="42.81158" lon="-0.09954">
        <ele>1753.1013183594</ele>
        <time>2015-07-09T11:48:28Z</time>
      </trkpt>
      <trkpt lat="42.81165" lon="-0.09951">
        <ele>1751.1787109375</ele>
        <time>2015-07-09T11:48:40Z</time>
      </trkpt>
      <trkpt lat="42.81173" lon="-0.09946">
        <ele>1748.2946777344</ele>
        <time>2015-07-09T11:49:09Z</time>
      </trkpt>
      <trkpt lat="42.81186" lon="-0.0994">
        <ele>1745.4108886719</ele>
        <time>2015-07-09T11:49:31Z</time>
      </trkpt>
      <trkpt lat="42.81195" lon="-0.09939">
        <ele>1744.9301757812</ele>
        <time>2015-07-09T11:49:40Z</time>
      </trkpt>
      <trkpt lat="42.81204" lon="-0.09934">
        <ele>1742.5270996094</ele>
        <time>2015-07-09T11:49:55Z</time>
      </trkpt>
      <trkpt lat="42.81207" lon="-0.09922">
        <ele>1740.1237792969</ele>
        <time>2015-07-09T11:50:16Z</time>
      </trkpt>
      <trkpt lat="42.81218" lon="-0.09908">
        <ele>1737.2395019531</ele>
        <time>2015-07-09T11:51:03Z</time>
      </trkpt>
      <trkpt lat="42.81222" lon="-0.09907">
        <ele>1734.3557128906</ele>
        <time>2015-07-09T11:51:12Z</time>
      </trkpt>
      <trkpt lat="42.81232" lon="-0.09901">
        <ele>1731.9523925781</ele>
        <time>2015-07-09T11:51:29Z</time>
      </trkpt>
      <trkpt lat="42.81249" lon="-0.09897">
        <ele>1731.4716796875</ele>
        <time>2015-07-09T11:51:49Z</time>
      </trkpt>
      <trkpt lat="42.81258" lon="-0.099">
        <ele>1730.5104980469</ele>
        <time>2015-07-09T11:51:57Z</time>
      </trkpt>
      <trkpt lat="42.81269" lon="-0.09905">
        <ele>1729.068359375</ele>
        <time>2015-07-09T11:52:09Z</time>
      </trkpt>
      <trkpt lat="42.81281" lon="-0.09906">
        <ele>1728.1071777344</ele>
        <time>2015-07-09T11:52:18Z</time>
      </trkpt>
      <trkpt lat="42.81283" lon="-0.09906">
        <ele>1726.6652832031</ele>
        <time>2015-07-09T11:52:29Z</time>
      </trkpt>
      <trkpt lat="42.81291" lon="-0.09906">
        <ele>1724.7426757812</ele>
        <time>2015-07-09T11:52:44Z</time>
      </trkpt>
      <trkpt lat="42.81299" lon="-0.09902">
        <ele>1724.7426757812</ele>
        <time>2015-07-09T11:52:56Z</time>
      </trkpt>
      <trkpt lat="42.81308" lon="-0.09902">
        <ele>1724.7426757812</ele>
        <time>2015-07-09T11:53:06Z</time>
      </trkpt>
      <trkpt lat="42.81316" lon="-0.09899">
        <ele>1724.2619628906</ele>
        <time>2015-07-09T11:53:19Z</time>
      </trkpt>
      <trkpt lat="42.81318" lon="-0.09888">
        <ele>1723.3005371094</ele>
        <time>2015-07-09T11:53:30Z</time>
      </trkpt>
      <trkpt lat="42.81321" lon="-0.09873">
        <ele>1722.3391113281</ele>
        <time>2015-07-09T11:53:50Z</time>
      </trkpt>
      <trkpt lat="42.81326" lon="-0.09874">
        <ele>1721.8583984375</ele>
        <time>2015-07-09T11:54:17Z</time>
      </trkpt>
      <trkpt lat="42.81338" lon="-0.09878">
        <ele>1719.9357910156</ele>
        <time>2015-07-09T11:54:31Z</time>
      </trkpt>
      <trkpt lat="42.81344" lon="-0.0987">
        <ele>1718.4938964844</ele>
        <time>2015-07-09T11:54:42Z</time>
      </trkpt>
      <trkpt lat="42.81355" lon="-0.09869">
        <ele>1717.0520019531</ele>
        <time>2015-07-09T11:54:55Z</time>
      </trkpt>
      <trkpt lat="42.81366" lon="-0.09873">
        <ele>1715.6101074219</ele>
        <time>2015-07-09T11:55:15Z</time>
      </trkpt>
      <trkpt lat="42.81373" lon="-0.09879">
        <ele>1716.0905761719</ele>
        <time>2015-07-09T11:55:23Z</time>
      </trkpt>
      <trkpt lat="42.8139" lon="-0.09884">
        <ele>1716.5712890625</ele>
        <time>2015-07-09T11:55:37Z</time>
      </trkpt>
      <trkpt lat="42.81398" lon="-0.09891">
        <ele>1717.5324707031</ele>
        <time>2015-07-09T11:55:49Z</time>
      </trkpt>
      <trkpt lat="42.81403" lon="-0.09889">
        <ele>1717.0520019531</ele>
        <time>2015-07-09T11:55:59Z</time>
      </trkpt>
      <trkpt lat="42.81414" lon="-0.0989">
        <ele>1715.1293945312</ele>
        <time>2015-07-09T11:56:11Z</time>
      </trkpt>
      <trkpt lat="42.81418" lon="-0.09879">
        <ele>1712.2453613281</ele>
        <time>2015-07-09T11:56:29Z</time>
      </trkpt>
      <trkpt lat="42.8142" lon="-0.09875">
        <ele>1710.3227539062</ele>
        <time>2015-07-09T11:56:37Z</time>
      </trkpt>
      <trkpt lat="42.81429" lon="-0.09874">
        <ele>1707.4387207031</ele>
        <time>2015-07-09T11:57:01Z</time>
      </trkpt>
      <trkpt lat="42.81442" lon="-0.09872">
        <ele>1703.5935058594</ele>
        <time>2015-07-09T11:57:35Z</time>
      </trkpt>
      <trkpt lat="42.81453" lon="-0.09874">
        <ele>1702.6320800781</ele>
        <time>2015-07-09T11:57:47Z</time>
      </trkpt>
      <trkpt lat="42.81455" lon="-0.09861">
        <ele>1700.2290039062</ele>
        <time>2015-07-09T11:58:10Z</time>
      </trkpt>
      <trkpt lat="42.81463" lon="-0.0986">
        <ele>1696.8642578125</ele>
        <time>2015-07-09T11:58:32Z</time>
      </trkpt>
      <trkpt lat="42.81476" lon="-0.09859">
        <ele>1693.4997558594</ele>
        <time>2015-07-09T11:58:44Z</time>
      </trkpt>
      <trkpt lat="42.81489" lon="-0.09861">
        <ele>1692.0578613281</ele>
        <time>2015-07-09T11:58:58Z</time>
      </trkpt>
      <trkpt lat="42.81504" lon="-0.0986">
        <ele>1692.0578613281</ele>
        <time>2015-07-09T11:59:10Z</time>
      </trkpt>
      <trkpt lat="42.8151" lon="-0.0986">
        <ele>1692.5385742188</ele>
        <time>2015-07-09T11:59:29Z</time>
      </trkpt>
      <trkpt lat="42.81491" lon="-0.09855">
        <ele>1695.9030761719</ele>
        <time>2015-07-09T12:00:24Z</time>
      </trkpt>
      <trkpt lat="42.8149" lon="-0.09858">
        <ele>1695.4223632812</ele>
        <time>2015-07-09T12:00:30Z</time>
      </trkpt>
      <trkpt lat="42.81493" lon="-0.09862">
        <ele>1692.0578613281</ele>
        <time>2015-07-09T12:00:56Z</time>
      </trkpt>
      <trkpt lat="42.81496" lon="-0.09859">
        <ele>1691.0961914062</ele>
        <time>2015-07-09T12:01:08Z</time>
      </trkpt>
      <trkpt lat="42.81506" lon="-0.09853">
        <ele>1689.1735839844</ele>
        <time>2015-07-09T12:01:17Z</time>
      </trkpt>
      <trkpt lat="42.81523" lon="-0.09852">
        <ele>1689.1735839844</ele>
        <time>2015-07-09T12:01:30Z</time>
      </trkpt>
      <trkpt lat="42.81528" lon="-0.09851">
        <ele>1688.2124023438</ele>
        <time>2015-07-09T12:01:34Z</time>
      </trkpt>
      <trkpt lat="42.81536" lon="-0.09848">
        <ele>1687.7316894531</ele>
        <time>2015-07-09T12:01:45Z</time>
      </trkpt>
      <trkpt lat="42.81539" lon="-0.09843">
        <ele>1683.8864746094</ele>
        <time>2015-07-09T12:03:06Z</time>
      </trkpt>
      <trkpt lat="42.81548" lon="-0.09836">
        <ele>1683.4057617188</ele>
        <time>2015-07-09T12:03:18Z</time>
      </trkpt>
      <trkpt lat="42.81554" lon="-0.0983">
        <ele>1684.3671875</ele>
        <time>2015-07-09T12:03:45Z</time>
      </trkpt>
    </trkseg>
  </trk>
  <trk>
    <name><![CDATA[ACTIVE LOG 009]]></name>
    <trkseg>
      <trkpt lat="42.81558" lon="-0.09829">
        <ele>1685.8090820312</ele>
        <time>2015-07-09T12:04:22Z</time>
      </trkpt>
    </trkseg>
  </trk>
  <trk>
    <name><![CDATA[ACTIVE LOG 010]]></name>
    <trkseg>
      <trkpt lat="42.81559" lon="-0.0983">
        <ele>1684.8479003906</ele>
        <time>2015-07-09T12:04:23Z</time>
      </trkpt>
      <trkpt lat="42.81569" lon="-0.0984">
        <ele>1684.3671875</ele>
        <time>2015-07-09T12:04:48Z</time>
      </trkpt>
      <trkpt lat="42.81558" lon="-0.0983">
        <ele>1681.0026855469</ele>
        <time>2015-07-09T12:05:36Z</time>
      </trkpt>
      <trkpt lat="42.81562" lon="-0.0983">
        <ele>1679.0798339844</ele>
        <time>2015-07-09T12:05:49Z</time>
      </trkpt>
      <trkpt lat="42.81565" lon="-0.09851">
        <ele>1676.1960449219</ele>
        <time>2015-07-09T12:07:29Z</time>
      </trkpt>
      <trkpt lat="42.81573" lon="-0.09859">
        <ele>1674.75390625</ele>
        <time>2015-07-09T12:07:49Z</time>
      </trkpt>
      <trkpt lat="42.81562" lon="-0.09855">
        <ele>1672.8312988281</ele>
        <time>2015-07-09T12:08:04Z</time>
      </trkpt>
      <trkpt lat="42.81567" lon="-0.09858">
        <ele>1670.4279785156</ele>
        <time>2015-07-09T12:08:14Z</time>
      </trkpt>
      <trkpt lat="42.81584" lon="-0.09864">
        <ele>1667.0634765625</ele>
        <time>2015-07-09T12:08:39Z</time>
      </trkpt>
      <trkpt lat="42.81596" lon="-0.09878">
        <ele>1665.6215820312</ele>
        <time>2015-07-09T12:08:54Z</time>
      </trkpt>
      <trkpt lat="42.81602" lon="-0.09868">
        <ele>1662.7375488281</ele>
        <time>2015-07-09T12:09:05Z</time>
      </trkpt>
      <trkpt lat="42.81622" lon="-0.0986">
        <ele>1660.3342285156</ele>
        <time>2015-07-09T12:09:19Z</time>
      </trkpt>
      <trkpt lat="42.81627" lon="-0.09858">
        <ele>1660.3342285156</ele>
        <time>2015-07-09T12:09:23Z</time>
      </trkpt>
      <trkpt lat="42.81641" lon="-0.09862">
        <ele>1658.8920898438</ele>
        <time>2015-07-09T12:09:34Z</time>
      </trkpt>
      <trkpt lat="42.81663" lon="-0.09864">
        <ele>1658.4113769531</ele>
        <time>2015-07-09T12:09:48Z</time>
      </trkpt>
      <trkpt lat="42.81681" lon="-0.09861">
        <ele>1658.8920898438</ele>
        <time>2015-07-09T12:10:03Z</time>
      </trkpt>
      <trkpt lat="42.81693" lon="-0.09856">
        <ele>1657.4501953125</ele>
        <time>2015-07-09T12:10:17Z</time>
      </trkpt>
    </trkseg>
  </trk>
  <trk>
    <name><![CDATA[ACTIVE LOG 011]]></name>
    <trkseg>
      <trkpt lat="42.81709" lon="-0.09849">
        <ele>1655.046875</ele>
        <time>2015-07-09T12:10:36Z</time>
      </trkpt>
    </trkseg>
  </trk>
  <trk>
    <name><![CDATA[ACTIVE LOG 012]]></name>
    <trkseg>
      <trkpt lat="42.81723" lon="-0.09826">
        <ele>1653.1242675781</ele>
        <time>2015-07-09T12:10:56Z</time>
      </trkpt>
      <trkpt lat="42.8175" lon="-0.0983">
        <ele>1652.1628417969</ele>
        <time>2015-07-09T12:11:13Z</time>
      </trkpt>
      <trkpt lat="42.81773" lon="-0.09833">
        <ele>1649.759765625</ele>
        <time>2015-07-09T12:11:31Z</time>
      </trkpt>
    </trkseg>
  </trk>
  <trk>
    <name><![CDATA[ACTIVE LOG 013]]></name>
    <trkseg>
      <trkpt lat="42.81796" lon="-0.09839">
        <ele>1648.7983398438</ele>
        <time>2015-07-09T12:11:55Z</time>
      </trkpt>
      <trkpt lat="42.81796" lon="-0.09839">
        <ele>1645.4338378906</ele>
        <time>2015-07-09T12:12:34Z</time>
      </trkpt>
      <trkpt lat="42.81796" lon="-0.09839">
        <ele>1642.5498046875</ele>
        <time>2015-07-09T12:13:16Z</time>
      </trkpt>
    </trkseg>
  </trk>
  <trk>
    <name><![CDATA[ACTIVE LOG 014]]></name>
    <trkseg>
      <trkpt lat="42.81906" lon="-0.09786">
        <ele>1641.1076660156</ele>
        <time>2015-07-09T12:13:43Z</time>
      </trkpt>
      <trkpt lat="42.81917" lon="-0.09783">
        <ele>1640.146484375</ele>
        <time>2015-07-09T12:13:55Z</time>
      </trkpt>
      <trkpt lat="42.81926" lon="-0.09774">
        <ele>1639.1850585938</ele>
        <time>2015-07-09T12:14:08Z</time>
      </trkpt>
      <trkpt lat="42.81949" lon="-0.09779">
        <ele>1636.3012695312</ele>
        <time>2015-07-09T12:14:32Z</time>
      </trkpt>
    </trkseg>
  </trk>
  <trk>
    <name><![CDATA[ACTIVE LOG 015]]></name>
    <trkseg>
      <trkpt lat="42.81956" lon="-0.09781">
        <ele>1637.2624511719</ele>
        <time>2015-07-09T12:14:41Z</time>
      </trkpt>
    </trkseg>
  </trk>
  <trk>
    <name><![CDATA[ACTIVE LOG 016]]></name>
    <trkseg>
      <trkpt lat="42.81895" lon="-0.09818">
        <ele>1636.3012695312</ele>
        <time>2015-07-09T12:15:01Z</time>
      </trkpt>
      <trkpt lat="42.81894" lon="-0.09824">
        <ele>1633.8979492188</ele>
        <time>2015-07-09T12:15:14Z</time>
      </trkpt>
      <trkpt lat="42.81908" lon="-0.09824">
        <ele>1633.4172363281</ele>
        <time>2015-07-09T12:15:28Z</time>
      </trkpt>
      <trkpt lat="42.81923" lon="-0.09827">
        <ele>1633.8979492188</ele>
        <time>2015-07-09T12:15:44Z</time>
      </trkpt>
      <trkpt lat="42.81931" lon="-0.09824">
        <ele>1632.9365234375</ele>
        <time>2015-07-09T12:15:55Z</time>
      </trkpt>
      <trkpt lat="42.81941" lon="-0.09822">
        <ele>1632.9365234375</ele>
        <time>2015-07-09T12:16:06Z</time>
      </trkpt>
      <trkpt lat="42.81957" lon="-0.09825">
        <ele>1633.4172363281</ele>
        <time>2015-07-09T12:16:22Z</time>
      </trkpt>
      <trkpt lat="42.81967" lon="-0.09823">
        <ele>1633.4172363281</ele>
        <time>2015-07-09T12:16:32Z</time>
      </trkpt>
      <trkpt lat="42.81983" lon="-0.09817">
        <ele>1630.5334472656</ele>
        <time>2015-07-09T12:16:53Z</time>
      </trkpt>
      <trkpt lat="42.81997" lon="-0.0981">
        <ele>1627.1687011719</ele>
        <time>2015-07-09T12:17:13Z</time>
      </trkpt>
      <trkpt lat="42.82003" lon="-0.09804">
        <ele>1626.2072753906</ele>
        <time>2015-07-09T12:17:24Z</time>
      </trkpt>
      <trkpt lat="42.82009" lon="-0.09798">
        <ele>1623.8039550781</ele>
        <time>2015-07-09T12:17:35Z</time>
      </trkpt>
      <trkpt lat="42.82023" lon="-0.09795">
        <ele>1622.3620605469</ele>
        <time>2015-07-09T12:17:57Z</time>
      </trkpt>
      <trkpt lat="42.82026" lon="-0.09796">
        <ele>1621.8813476562</ele>
        <time>2015-07-09T12:18:02Z</time>
      </trkpt>
      <trkpt lat="42.82032" lon="-0.09791">
        <ele>1618.9975585938</ele>
        <time>2015-07-09T12:18:11Z</time>
      </trkpt>
      <trkpt lat="42.82039" lon="-0.09791">
        <ele>1618.5168457031</ele>
        <time>2015-07-09T12:18:21Z</time>
      </trkpt>
      <trkpt lat="42.82047" lon="-0.09792">
        <ele>1617.5554199219</ele>
        <time>2015-07-09T12:18:31Z</time>
      </trkpt>
      <trkpt lat="42.82052" lon="-0.09792">
        <ele>1616.5942382812</ele>
        <time>2015-07-09T12:18:48Z</time>
      </trkpt>
      <trkpt lat="42.82058" lon="-0.09793">
        <ele>1615.15234375</ele>
        <time>2015-07-09T12:18:56Z</time>
      </trkpt>
      <trkpt lat="42.82065" lon="-0.09793">
        <ele>1614.6716308594</ele>
        <time>2015-07-09T12:19:06Z</time>
      </trkpt>
      <trkpt lat="42.82067" lon="-0.09793">
        <ele>1613.7102050781</ele>
        <time>2015-07-09T12:19:08Z</time>
      </trkpt>
      <trkpt lat="42.82078" lon="-0.09797">
        <ele>1611.7875976562</ele>
        <time>2015-07-09T12:19:21Z</time>
      </trkpt>
      <trkpt lat="42.8208" lon="-0.09797">
        <ele>1610.826171875</ele>
        <time>2015-07-09T12:19:23Z</time>
      </trkpt>
      <trkpt lat="42.82086" lon="-0.098">
        <ele>1611.3068847656</ele>
        <time>2015-07-09T12:19:33Z</time>
      </trkpt>
      <trkpt lat="42.82092" lon="-0.098">
        <ele>1611.3068847656</ele>
        <time>2015-07-09T12:19:52Z</time>
      </trkpt>
      <trkpt lat="42.82104" lon="-0.09799">
        <ele>1609.3842773438</ele>
        <time>2015-07-09T12:20:09Z</time>
      </trkpt>
      <trkpt lat="42.82114" lon="-0.09803">
        <ele>1608.9035644531</ele>
        <time>2015-07-09T12:20:21Z</time>
      </trkpt>
      <trkpt lat="42.8212" lon="-0.09801">
        <ele>1608.4228515625</ele>
        <time>2015-07-09T12:20:29Z</time>
      </trkpt>
      <trkpt lat="42.82132" lon="-0.0979">
        <ele>1607.9423828125</ele>
        <time>2015-07-09T12:20:44Z</time>
      </trkpt>
      <trkpt lat="42.82138" lon="-0.09787">
        <ele>1607.4616699219</ele>
        <time>2015-07-09T12:20:51Z</time>
      </trkpt>
      <trkpt lat="42.82147" lon="-0.09786">
        <ele>1607.9423828125</ele>
        <time>2015-07-09T12:21:10Z</time>
      </trkpt>
      <trkpt lat="42.82155" lon="-0.09783">
        <ele>1605.5390625</ele>
        <time>2015-07-09T12:21:22Z</time>
      </trkpt>
      <trkpt lat="42.82163" lon="-0.09783">
        <ele>1603.6164550781</ele>
        <time>2015-07-09T12:21:31Z</time>
      </trkpt>
      <trkpt lat="42.82165" lon="-0.09782">
        <ele>1603.6164550781</ele>
        <time>2015-07-09T12:21:33Z</time>
      </trkpt>
      <trkpt lat="42.82177" lon="-0.09777">
        <ele>1602.1743164062</ele>
        <time>2015-07-09T12:21:46Z</time>
      </trkpt>
      <trkpt lat="42.82188" lon="-0.0977">
        <ele>1600.732421875</ele>
        <time>2015-07-09T12:22:00Z</time>
      </trkpt>
      <trkpt lat="42.82196" lon="-0.09764">
        <ele>1599.7712402344</ele>
        <time>2015-07-09T12:22:09Z</time>
      </trkpt>
      <trkpt lat="42.82199" lon="-0.09758">
        <ele>1598.3291015625</ele>
        <time>2015-07-09T12:22:15Z</time>
      </trkpt>
      <trkpt lat="42.82212" lon="-0.09749">
        <ele>1595.92578125</ele>
        <time>2015-07-09T12:22:29Z</time>
      </trkpt>
      <trkpt lat="42.82215" lon="-0.09747">
        <ele>1596.4067382812</ele>
        <time>2015-07-09T12:22:43Z</time>
      </trkpt>
      <trkpt lat="42.82224" lon="-0.09741">
        <ele>1595.4450683594</ele>
        <time>2015-07-09T12:22:52Z</time>
      </trkpt>
      <trkpt lat="42.82243" lon="-0.09727">
        <ele>1594.4836425781</ele>
        <time>2015-07-09T12:23:12Z</time>
      </trkpt>
      <trkpt lat="42.82255" lon="-0.09722">
        <ele>1592.5612792969</ele>
        <time>2015-07-09T12:23:26Z</time>
      </trkpt>
      <trkpt lat="42.82277" lon="-0.09717">
        <ele>1590.6384277344</ele>
        <time>2015-07-09T12:23:45Z</time>
      </trkpt>
      <trkpt lat="42.82294" lon="-0.09718">
        <ele>1589.6772460938</ele>
        <time>2015-07-09T12:24:03Z</time>
      </trkpt>
      <trkpt lat="42.82299" lon="-0.09716">
        <ele>1589.1965332031</ele>
        <time>2015-07-09T12:24:12Z</time>
      </trkpt>
      <trkpt lat="42.82305" lon="-0.09712">
        <ele>1587.7546386719</ele>
        <time>2015-07-09T12:24:22Z</time>
      </trkpt>
      <trkpt lat="42.82306" lon="-0.09712">
        <ele>1587.7546386719</ele>
        <time>2015-07-09T12:24:23Z</time>
      </trkpt>
      <trkpt lat="42.82312" lon="-0.09713">
        <ele>1586.7932128906</ele>
        <time>2015-07-09T12:24:30Z</time>
      </trkpt>
      <trkpt lat="42.82324" lon="-0.09712">
        <ele>1586.7932128906</ele>
        <time>2015-07-09T12:24:44Z</time>
      </trkpt>
      <trkpt lat="42.82331" lon="-0.09709">
        <ele>1587.2739257812</ele>
        <time>2015-07-09T12:24:56Z</time>
      </trkpt>
      <trkpt lat="42.82337" lon="-0.09708">
        <ele>1587.2739257812</ele>
        <time>2015-07-09T12:25:03Z</time>
      </trkpt>
      <trkpt lat="42.82346" lon="-0.09699">
        <ele>1588.2353515625</ele>
        <time>2015-07-09T12:25:22Z</time>
      </trkpt>
      <trkpt lat="42.82354" lon="-0.09693">
        <ele>1587.7546386719</ele>
        <time>2015-07-09T12:25:36Z</time>
      </trkpt>
      <trkpt lat="42.82372" lon="-0.09679">
        <ele>1585.3513183594</ele>
        <time>2015-07-09T12:25:55Z</time>
      </trkpt>
      <trkpt lat="42.82388" lon="-0.09666">
        <ele>1583.4287109375</ele>
        <time>2015-07-09T12:26:11Z</time>
      </trkpt>
      <trkpt lat="42.82388" lon="-0.09645">
        <ele>1581.5061035156</ele>
        <time>2015-07-09T12:26:27Z</time>
      </trkpt>
      <trkpt lat="42.82398" lon="-0.0963">
        <ele>1582.9479980469</ele>
        <time>2015-07-09T12:26:42Z</time>
      </trkpt>
      <trkpt lat="42.82412" lon="-0.09631">
        <ele>1580.544921875</ele>
        <time>2015-07-09T12:26:56Z</time>
      </trkpt>
      <trkpt lat="42.82427" lon="-0.09627">
        <ele>1580.0642089844</ele>
        <time>2015-07-09T12:27:09Z</time>
      </trkpt>
      <trkpt lat="42.82444" lon="-0.0963">
        <ele>1578.6220703125</ele>
        <time>2015-07-09T12:27:27Z</time>
      </trkpt>
      <trkpt lat="42.8245" lon="-0.09626">
        <ele>1578.6220703125</ele>
        <time>2015-07-09T12:27:38Z</time>
      </trkpt>
      <trkpt lat="42.82452" lon="-0.09624">
        <ele>1578.6220703125</ele>
        <time>2015-07-09T12:27:41Z</time>
      </trkpt>
      <trkpt lat="42.82461" lon="-0.0962">
        <ele>1578.6220703125</ele>
        <time>2015-07-09T12:27:51Z</time>
      </trkpt>
      <trkpt lat="42.82471" lon="-0.09618">
        <ele>1577.6606445312</ele>
        <time>2015-07-09T12:28:01Z</time>
      </trkpt>
      <trkpt lat="42.8248" lon="-0.09624">
        <ele>1576.21875</ele>
        <time>2015-07-09T12:28:11Z</time>
      </trkpt>
      <trkpt lat="42.82496" lon="-0.09624">
        <ele>1575.2573242188</ele>
        <time>2015-07-09T12:28:29Z</time>
      </trkpt>
      <trkpt lat="42.82505" lon="-0.09625">
        <ele>1574.7768554688</ele>
        <time>2015-07-09T12:28:38Z</time>
      </trkpt>
      <trkpt lat="42.82516" lon="-0.09625">
        <ele>1575.2573242188</ele>
        <time>2015-07-09T12:28:49Z</time>
      </trkpt>
      <trkpt lat="42.82533" lon="-0.09615">
        <ele>1576.21875</ele>
        <time>2015-07-09T12:29:06Z</time>
      </trkpt>
      <trkpt lat="42.82534" lon="-0.09615">
        <ele>1576.6994628906</ele>
        <time>2015-07-09T12:29:08Z</time>
      </trkpt>
      <trkpt lat="42.82539" lon="-0.09615">
        <ele>1576.21875</ele>
        <time>2015-07-09T12:29:12Z</time>
      </trkpt>
      <trkpt lat="42.82554" lon="-0.09614">
        <ele>1578.1413574219</ele>
        <time>2015-07-09T12:29:28Z</time>
      </trkpt>
      <trkpt lat="42.82567" lon="-0.09618">
        <ele>1578.6220703125</ele>
        <time>2015-07-09T12:29:42Z</time>
      </trkpt>
      <trkpt lat="42.82573" lon="-0.09624">
        <ele>1577.1801757812</ele>
        <time>2015-07-09T12:29:50Z</time>
      </trkpt>
      <trkpt lat="42.82577" lon="-0.09627">
        <ele>1576.21875</ele>
        <time>2015-07-09T12:29:55Z</time>
      </trkpt>
      <trkpt lat="42.82591" lon="-0.09627">
        <ele>1574.7768554688</ele>
        <time>2015-07-09T12:30:07Z</time>
      </trkpt>
      <trkpt lat="42.82606" lon="-0.09621">
        <ele>1575.2573242188</ele>
        <time>2015-07-09T12:30:23Z</time>
      </trkpt>
      <trkpt lat="42.82607" lon="-0.0962">
        <ele>1575.2573242188</ele>
        <time>2015-07-09T12:30:24Z</time>
      </trkpt>
      <trkpt lat="42.82616" lon="-0.09619">
        <ele>1573.8154296875</ele>
        <time>2015-07-09T12:30:36Z</time>
      </trkpt>
      <trkpt lat="42.8263" lon="-0.09619">
        <ele>1572.8542480469</ele>
        <time>2015-07-09T12:30:50Z</time>
      </trkpt>
      <trkpt lat="42.82646" lon="-0.09619">
        <ele>1571.412109375</ele>
        <time>2015-07-09T12:31:06Z</time>
      </trkpt>
      <trkpt lat="42.82653" lon="-0.09615">
        <ele>1571.412109375</ele>
        <time>2015-07-09T12:31:22Z</time>
      </trkpt>
      <trkpt lat="42.82658" lon="-0.09608">
        <ele>1570.931640625</ele>
        <time>2015-07-09T12:31:40Z</time>
      </trkpt>
      <trkpt lat="42.82661" lon="-0.09606">
        <ele>1570.931640625</ele>
        <time>2015-07-09T12:31:45Z</time>
      </trkpt>
      <trkpt lat="42.82677" lon="-0.09594">
        <ele>1570.931640625</ele>
        <time>2015-07-09T12:32:02Z</time>
      </trkpt>
      <trkpt lat="42.82684" lon="-0.09587">
        <ele>1569.9702148438</ele>
        <time>2015-07-09T12:32:12Z</time>
      </trkpt>
      <trkpt lat="42.82692" lon="-0.09576">
        <ele>1568.5283203125</ele>
        <time>2015-07-09T12:32:26Z</time>
      </trkpt>
      <trkpt lat="42.82698" lon="-0.0957">
        <ele>1565.64453125</ele>
        <time>2015-07-09T12:32:57Z</time>
      </trkpt>
      <trkpt lat="42.82703" lon="-0.09568">
        <ele>1565.64453125</ele>
        <time>2015-07-09T12:33:16Z</time>
      </trkpt>
      <trkpt lat="42.82708" lon="-0.09563">
        <ele>1564.6831054688</ele>
        <time>2015-07-09T12:33:27Z</time>
      </trkpt>
      <trkpt lat="42.82719" lon="-0.09563">
        <ele>1563.2409667969</ele>
        <time>2015-07-09T12:33:43Z</time>
      </trkpt>
      <trkpt lat="42.82723" lon="-0.0957">
        <ele>1561.7990722656</ele>
        <time>2015-07-09T12:33:54Z</time>
      </trkpt>
      <trkpt lat="42.82735" lon="-0.09575">
        <ele>1560.8376464844</ele>
        <time>2015-07-09T12:34:07Z</time>
      </trkpt>
      <trkpt lat="42.82739" lon="-0.09578">
        <ele>1560.8376464844</ele>
        <time>2015-07-09T12:34:14Z</time>
      </trkpt>
      <trkpt lat="42.8275" lon="-0.09582">
        <ele>1560.3569335938</ele>
        <time>2015-07-09T12:34:29Z</time>
      </trkpt>
      <trkpt lat="42.82758" lon="-0.09591">
        <ele>1559.3957519531</ele>
        <time>2015-07-09T12:34:42Z</time>
      </trkpt>
      <trkpt lat="42.82764" lon="-0.09597">
        <ele>1559.8762207031</ele>
        <time>2015-07-09T12:34:51Z</time>
      </trkpt>
      <trkpt lat="42.82775" lon="-0.09599">
        <ele>1559.3957519531</ele>
        <time>2015-07-09T12:35:02Z</time>
      </trkpt>
      <trkpt lat="42.82783" lon="-0.0961">
        <ele>1557.9538574219</ele>
        <time>2015-07-09T12:35:15Z</time>
      </trkpt>
      <trkpt lat="42.82796" lon="-0.09612">
        <ele>1557.4731445312</ele>
        <time>2015-07-09T12:35:26Z</time>
      </trkpt>
      <trkpt lat="42.82806" lon="-0.09615">
        <ele>1557.9538574219</ele>
        <time>2015-07-09T12:35:39Z</time>
      </trkpt>
      <trkpt lat="42.82813" lon="-0.09618">
        <ele>1556.51171875</ele>
        <time>2015-07-09T12:35:51Z</time>
      </trkpt>
      <trkpt lat="42.82823" lon="-0.09626">
        <ele>1555.5505371094</ele>
        <time>2015-07-09T12:36:02Z</time>
      </trkpt>
      <trkpt lat="42.82837" lon="-0.0963">
        <ele>1553.1472167969</ele>
        <time>2015-07-09T12:36:16Z</time>
      </trkpt>
      <trkpt lat="42.82842" lon="-0.0964">
        <ele>1552.6665039062</ele>
        <time>2015-07-09T12:36:30Z</time>
      </trkpt>
      <trkpt lat="42.82846" lon="-0.09642">
        <ele>1551.7053222656</ele>
        <time>2015-07-09T12:36:34Z</time>
      </trkpt>
      <trkpt lat="42.82859" lon="-0.09646">
        <ele>1551.224609375</ele>
        <time>2015-07-09T12:36:46Z</time>
      </trkpt>
      <trkpt lat="42.8288" lon="-0.09646">
        <ele>1550.7438964844</ele>
        <time>2015-07-09T12:37:01Z</time>
      </trkpt>
      <trkpt lat="42.82903" lon="-0.09644">
        <ele>1550.2634277344</ele>
        <time>2015-07-09T12:37:20Z</time>
      </trkpt>
      <trkpt lat="42.82925" lon="-0.0965">
        <ele>1549.7827148438</ele>
        <time>2015-07-09T12:37:39Z</time>
      </trkpt>
      <trkpt lat="42.82939" lon="-0.09646">
        <ele>1548.8212890625</ele>
        <time>2015-07-09T12:37:56Z</time>
      </trkpt>
      <trkpt lat="42.8295" lon="-0.0965">
        <ele>1546.41796875</ele>
        <time>2015-07-09T12:38:10Z</time>
      </trkpt>
      <trkpt lat="42.82951" lon="-0.09652">
        <ele>1545.9372558594</ele>
        <time>2015-07-09T12:38:12Z</time>
      </trkpt>
      <trkpt lat="42.82948" lon="-0.09673">
        <ele>1545.9372558594</ele>
        <time>2015-07-09T12:38:30Z</time>
      </trkpt>
      <trkpt lat="42.82954" lon="-0.09672">
        <ele>1546.41796875</ele>
        <time>2015-07-09T12:38:42Z</time>
      </trkpt>
      <trkpt lat="42.82946" lon="-0.09674">
        <ele>1545.9372558594</ele>
        <time>2015-07-09T12:39:24Z</time>
      </trkpt>
      <trkpt lat="42.82947" lon="-0.09675">
        <ele>1545.9372558594</ele>
        <time>2015-07-09T12:39:52Z</time>
      </trkpt>
      <trkpt lat="42.82952" lon="-0.09668">
        <ele>1546.8984375</ele>
        <time>2015-07-09T12:40:14Z</time>
      </trkpt>
      <trkpt lat="42.8295" lon="-0.09665">
        <ele>1546.41796875</ele>
        <time>2015-07-09T12:40:21Z</time>
      </trkpt>
      <trkpt lat="42.82944" lon="-0.09649">
        <ele>1546.8984375</ele>
        <time>2015-07-09T12:40:35Z</time>
      </trkpt>
      <trkpt lat="42.82938" lon="-0.09645">
        <ele>1548.8212890625</ele>
        <time>2015-07-09T12:40:44Z</time>
      </trkpt>
      <trkpt lat="42.82936" lon="-0.0964">
        <ele>1550.2634277344</ele>
        <time>2015-07-09T12:40:49Z</time>
      </trkpt>
      <trkpt lat="42.82932" lon="-0.09637">
        <ele>1551.7053222656</ele>
        <time>2015-07-09T12:40:54Z</time>
      </trkpt>
      <trkpt lat="42.82923" lon="-0.09632">
        <ele>1554.5891113281</ele>
        <time>2015-07-09T12:41:05Z</time>
      </trkpt>
      <trkpt lat="42.82921" lon="-0.09631">
        <ele>1554.5891113281</ele>
        <time>2015-07-09T12:41:12Z</time>
      </trkpt>
      <trkpt lat="42.8292" lon="-0.09627">
        <ele>1554.5891113281</ele>
        <time>2015-07-09T12:41:15Z</time>
      </trkpt>
      <trkpt lat="42.82919" lon="-0.0962">
        <ele>1556.0310058594</ele>
        <time>2015-07-09T12:41:21Z</time>
      </trkpt>
      <trkpt lat="42.82912" lon="-0.09619">
        <ele>1556.9924316406</ele>
        <time>2015-07-09T12:41:42Z</time>
      </trkpt>
      <trkpt lat="42.82928" lon="-0.09608">
        <ele>1556.9924316406</ele>
        <time>2015-07-09T12:41:54Z</time>
      </trkpt>
      <trkpt lat="42.82917" lon="-0.09617">
        <ele>1556.51171875</ele>
        <time>2015-07-09T12:42:25Z</time>
      </trkpt>
      <trkpt lat="42.82909" lon="-0.09624">
        <ele>1556.0310058594</ele>
        <time>2015-07-09T12:42:41Z</time>
      </trkpt>
      <trkpt lat="42.82912" lon="-0.0962">
        <ele>1556.51171875</ele>
        <time>2015-07-09T12:42:59Z</time>
      </trkpt>
      <trkpt lat="42.82913" lon="-0.0962">
        <ele>1556.51171875</ele>
        <time>2015-07-09T12:43:00Z</time>
      </trkpt>
      <trkpt lat="42.82917" lon="-0.09625">
        <ele>1555.0698242188</ele>
        <time>2015-07-09T12:43:05Z</time>
      </trkpt>
      <trkpt lat="42.82921" lon="-0.09629">
        <ele>1553.6279296875</ele>
        <time>2015-07-09T12:43:08Z</time>
      </trkpt>
      <trkpt lat="42.82931" lon="-0.0964">
        <ele>1551.224609375</ele>
        <time>2015-07-09T12:43:16Z</time>
      </trkpt>
      <trkpt lat="42.82933" lon="-0.09643">
        <ele>1550.2634277344</ele>
        <time>2015-07-09T12:43:19Z</time>
      </trkpt>
      <trkpt lat="42.82939" lon="-0.09648">
        <ele>1549.3020019531</ele>
        <time>2015-07-09T12:43:26Z</time>
      </trkpt>
      <trkpt lat="42.82943" lon="-0.09648">
        <ele>1548.3405761719</ele>
        <time>2015-07-09T12:43:30Z</time>
      </trkpt>
      <trkpt lat="42.82963" lon="-0.09639">
        <ele>1547.3791503906</ele>
        <time>2015-07-09T12:43:50Z</time>
      </trkpt>
      <trkpt lat="42.8297" lon="-0.0964">
        <ele>1548.3405761719</ele>
        <time>2015-07-09T12:43:57Z</time>
      </trkpt>
      <trkpt lat="42.8298" lon="-0.09649">
        <ele>1546.41796875</ele>
        <time>2015-07-09T12:44:11Z</time>
      </trkpt>
      <trkpt lat="42.82989" lon="-0.0965">
        <ele>1546.8984375</ele>
        <time>2015-07-09T12:44:28Z</time>
      </trkpt>
      <trkpt lat="42.82993" lon="-0.09651">
        <ele>1546.8984375</ele>
        <time>2015-07-09T12:44:32Z</time>
      </trkpt>
      <trkpt lat="42.83" lon="-0.09652">
        <ele>1547.3791503906</ele>
        <time>2015-07-09T12:44:40Z</time>
      </trkpt>
      <trkpt lat="42.83002" lon="-0.09653">
        <ele>1548.3405761719</ele>
        <time>2015-07-09T12:44:42Z</time>
      </trkpt>
      <trkpt lat="42.8301" lon="-0.0964">
        <ele>1549.3020019531</ele>
        <time>2015-07-09T12:44:57Z</time>
      </trkpt>
      <trkpt lat="42.83018" lon="-0.0963">
        <ele>1550.7438964844</ele>
        <time>2015-07-09T12:45:12Z</time>
      </trkpt>
      <trkpt lat="42.83024" lon="-0.09625">
        <ele>1549.3020019531</ele>
        <time>2015-07-09T12:45:21Z</time>
      </trkpt>
      <trkpt lat="42.83033" lon="-0.09619">
        <ele>1549.7827148438</ele>
        <time>2015-07-09T12:45:35Z</time>
      </trkpt>
      <trkpt lat="42.83035" lon="-0.09618">
        <ele>1550.2634277344</ele>
        <time>2015-07-09T12:45:37Z</time>
      </trkpt>
      <trkpt lat="42.83044" lon="-0.09614">
        <ele>1549.3020019531</ele>
        <time>2015-07-09T12:45:46Z</time>
      </trkpt>
      <trkpt lat="42.83048" lon="-0.09615">
        <ele>1548.8212890625</ele>
        <time>2015-07-09T12:46:09Z</time>
      </trkpt>
      <trkpt lat="42.83057" lon="-0.09612">
        <ele>1548.8212890625</ele>
        <time>2015-07-09T12:46:30Z</time>
      </trkpt>
      <trkpt lat="42.83068" lon="-0.09608">
        <ele>1548.3405761719</ele>
        <time>2015-07-09T12:46:43Z</time>
      </trkpt>
      <trkpt lat="42.83091" lon="-0.09598">
        <ele>1547.3791503906</ele>
        <time>2015-07-09T12:47:06Z</time>
      </trkpt>
      <trkpt lat="42.83108" lon="-0.09589">
        <ele>1546.41796875</ele>
        <time>2015-07-09T12:47:24Z</time>
      </trkpt>
      <trkpt lat="42.83121" lon="-0.09585">
        <ele>1545.9372558594</ele>
        <time>2015-07-09T12:47:38Z</time>
      </trkpt>
      <trkpt lat="42.83123" lon="-0.09583">
        <ele>1545.4565429688</ele>
        <time>2015-07-09T12:47:41Z</time>
      </trkpt>
      <trkpt lat="42.83137" lon="-0.09578">
        <ele>1544.4951171875</ele>
        <time>2015-07-09T12:47:56Z</time>
      </trkpt>
      <trkpt lat="42.83143" lon="-0.09573">
        <ele>1544.0146484375</ele>
        <time>2015-07-09T12:48:06Z</time>
      </trkpt>
      <trkpt lat="42.83152" lon="-0.0957">
        <ele>1541.1306152344</ele>
        <time>2015-07-09T12:48:18Z</time>
      </trkpt>
      <trkpt lat="42.8316" lon="-0.09572">
        <ele>1540.6499023438</ele>
        <time>2015-07-09T12:48:28Z</time>
      </trkpt>
      <trkpt lat="42.83165" lon="-0.09574">
        <ele>1540.1694335938</ele>
        <time>2015-07-09T12:48:39Z</time>
      </trkpt>
      <trkpt lat="42.83174" lon="-0.09572">
        <ele>1538.2468261719</ele>
        <time>2015-07-09T12:48:52Z</time>
      </trkpt>
      <trkpt lat="42.83185" lon="-0.0957">
        <ele>1536.8046875</ele>
        <time>2015-07-09T12:49:02Z</time>
      </trkpt>
      <trkpt lat="42.83192" lon="-0.09564">
        <ele>1535.3627929688</ele>
        <time>2015-07-09T12:49:13Z</time>
      </trkpt>
      <trkpt lat="42.83199" lon="-0.09563">
        <ele>1534.8823242188</ele>
        <time>2015-07-09T12:49:23Z</time>
      </trkpt>
      <trkpt lat="42.83206" lon="-0.09566">
        <ele>1533.9208984375</ele>
        <time>2015-07-09T12:49:33Z</time>
      </trkpt>
      <trkpt lat="42.83215" lon="-0.09572">
        <ele>1530.5561523438</ele>
        <time>2015-07-09T12:49:53Z</time>
      </trkpt>
      <trkpt lat="42.83226" lon="-0.09578">
        <ele>1529.5947265625</ele>
        <time>2015-07-09T12:50:11Z</time>
      </trkpt>
      <trkpt lat="42.83235" lon="-0.09584">
        <ele>1528.1528320312</ele>
        <time>2015-07-09T12:50:24Z</time>
      </trkpt>
      <trkpt lat="42.8324" lon="-0.09588">
        <ele>1526.7109375</ele>
        <time>2015-07-09T12:50:31Z</time>
      </trkpt>
      <trkpt lat="42.83251" lon="-0.09592">
        <ele>1526.7109375</ele>
        <time>2015-07-09T12:50:41Z</time>
      </trkpt>
      <trkpt lat="42.83274" lon="-0.09595">
        <ele>1525.2687988281</ele>
        <time>2015-07-09T12:51:03Z</time>
      </trkpt>
      <trkpt lat="42.8328" lon="-0.09595">
        <ele>1524.7883300781</ele>
        <time>2015-07-09T12:51:08Z</time>
      </trkpt>
      <trkpt lat="42.83285" lon="-0.09592">
        <ele>1524.3076171875</ele>
        <time>2015-07-09T12:51:12Z</time>
      </trkpt>
      <trkpt lat="42.83297" lon="-0.09591">
        <ele>1524.7883300781</ele>
        <time>2015-07-09T12:51:27Z</time>
      </trkpt>
      <trkpt lat="42.83318" lon="-0.09588">
        <ele>1523.8269042969</ele>
        <time>2015-07-09T12:51:45Z</time>
      </trkpt>
      <trkpt lat="42.83339" lon="-0.09596">
        <ele>1523.8269042969</ele>
        <time>2015-07-09T12:51:53Z</time>
      </trkpt>
      <trkpt lat="42.83344" lon="-0.09596">
        <ele>1523.3464355469</ele>
        <time>2015-07-09T12:51:57Z</time>
      </trkpt>
      <trkpt lat="42.83358" lon="-0.09595">
        <ele>1521.904296875</ele>
        <time>2015-07-09T12:52:10Z</time>
      </trkpt>
      <trkpt lat="42.83368" lon="-0.09592">
        <ele>1522.8657226562</ele>
        <time>2015-07-09T12:52:19Z</time>
      </trkpt>
      <trkpt lat="42.83372" lon="-0.09592">
        <ele>1521.904296875</ele>
        <time>2015-07-09T12:52:23Z</time>
      </trkpt>
      <trkpt lat="42.83392" lon="-0.09593">
        <ele>1521.4235839844</ele>
        <time>2015-07-09T12:52:40Z</time>
      </trkpt>
      <trkpt lat="42.83398" lon="-0.09599">
        <ele>1520.4624023438</ele>
        <time>2015-07-09T12:52:50Z</time>
      </trkpt>
      <trkpt lat="42.83404" lon="-0.096">
        <ele>1519.9816894531</ele>
        <time>2015-07-09T12:52:57Z</time>
      </trkpt>
      <trkpt lat="42.83411" lon="-0.09609">
        <ele>1519.5012207031</ele>
        <time>2015-07-09T12:53:06Z</time>
      </trkpt>
      <trkpt lat="42.83415" lon="-0.09609">
        <ele>1519.0205078125</ele>
        <time>2015-07-09T12:53:10Z</time>
      </trkpt>
      <trkpt lat="42.83439" lon="-0.09608">
        <ele>1518.5397949219</ele>
        <time>2015-07-09T12:53:31Z</time>
      </trkpt>
      <trkpt lat="42.83455" lon="-0.09613">
        <ele>1517.5783691406</ele>
        <time>2015-07-09T12:53:47Z</time>
      </trkpt>
      <trkpt lat="42.83474" lon="-0.0962">
        <ele>1517.0979003906</ele>
        <time>2015-07-09T12:54:07Z</time>
      </trkpt>
      <trkpt lat="42.83484" lon="-0.09628">
        <ele>1515.6557617188</ele>
        <time>2015-07-09T12:54:22Z</time>
      </trkpt>
      <trkpt lat="42.83494" lon="-0.09632">
        <ele>1514.6943359375</ele>
        <time>2015-07-09T12:54:33Z</time>
      </trkpt>
      <trkpt lat="42.83503" lon="-0.0964">
        <ele>1513.7329101562</ele>
        <time>2015-07-09T12:54:42Z</time>
      </trkpt>
      <trkpt lat="42.83527" lon="-0.09647">
        <ele>1512.7717285156</ele>
        <time>2015-07-09T12:55:05Z</time>
      </trkpt>
      <trkpt lat="42.83552" lon="-0.09657">
        <ele>1512.7717285156</ele>
        <time>2015-07-09T12:55:27Z</time>
      </trkpt>
      <trkpt lat="42.83565" lon="-0.09663">
        <ele>1509.8876953125</ele>
        <time>2015-07-09T12:55:39Z</time>
      </trkpt>
      <trkpt lat="42.83586" lon="-0.0967">
        <ele>1507.4846191406</ele>
        <time>2015-07-09T12:55:58Z</time>
      </trkpt>
      <trkpt lat="42.83594" lon="-0.09671">
        <ele>1507.00390625</ele>
        <time>2015-07-09T12:56:06Z</time>
      </trkpt>
      <trkpt lat="42.83603" lon="-0.09667">
        <ele>1507.4846191406</ele>
        <time>2015-07-09T12:56:15Z</time>
      </trkpt>
      <trkpt lat="42.83612" lon="-0.09666">
        <ele>1507.00390625</ele>
        <time>2015-07-09T12:56:22Z</time>
      </trkpt>
      <trkpt lat="42.83633" lon="-0.09662">
        <ele>1506.5231933594</ele>
        <time>2015-07-09T12:56:40Z</time>
      </trkpt>
      <trkpt lat="42.83656" lon="-0.09669">
        <ele>1505.5620117188</ele>
        <time>2015-07-09T12:57:00Z</time>
      </trkpt>
      <trkpt lat="42.83675" lon="-0.09672">
        <ele>1505.0812988281</ele>
        <time>2015-07-09T12:57:16Z</time>
      </trkpt>
      <trkpt lat="42.83684" lon="-0.09668">
        <ele>1504.1201171875</ele>
        <time>2015-07-09T12:57:25Z</time>
      </trkpt>
      <trkpt lat="42.83699" lon="-0.09659">
        <ele>1503.1586914062</ele>
        <time>2015-07-09T12:57:40Z</time>
      </trkpt>
      <trkpt lat="42.83718" lon="-0.09649">
        <ele>1503.1586914062</ele>
        <time>2015-07-09T12:57:58Z</time>
      </trkpt>
      <trkpt lat="42.8374" lon="-0.09634">
        <ele>1502.6779785156</ele>
        <time>2015-07-09T12:58:18Z</time>
      </trkpt>
      <trkpt lat="42.83769" lon="-0.09624">
        <ele>1500.2749023438</ele>
        <time>2015-07-09T12:58:42Z</time>
      </trkpt>
      <trkpt lat="42.83792" lon="-0.09616">
        <ele>1499.3132324219</ele>
        <time>2015-07-09T12:59:01Z</time>
      </trkpt>
      <trkpt lat="42.83815" lon="-0.09604">
        <ele>1498.3518066406</ele>
        <time>2015-07-09T12:59:21Z</time>
      </trkpt>
      <trkpt lat="42.83835" lon="-0.09598">
        <ele>1498.8325195312</ele>
        <time>2015-07-09T12:59:38Z</time>
      </trkpt>
      <trkpt lat="42.83859" lon="-0.09601">
        <ele>1497.8713378906</ele>
        <time>2015-07-09T13:00:00Z</time>
      </trkpt>
      <trkpt lat="42.83874" lon="-0.09611">
        <ele>1496.4294433594</ele>
        <time>2015-07-09T13:00:16Z</time>
      </trkpt>
      <trkpt lat="42.83889" lon="-0.09615">
        <ele>1495.9487304688</ele>
        <time>2015-07-09T13:00:31Z</time>
      </trkpt>
      <trkpt lat="42.83907" lon="-0.09615">
        <ele>1495.4680175781</ele>
        <time>2015-07-09T13:00:49Z</time>
      </trkpt>
      <trkpt lat="42.83928" lon="-0.09622">
        <ele>1494.0261230469</ele>
        <time>2015-07-09T13:01:09Z</time>
      </trkpt>
      <trkpt lat="42.83948" lon="-0.09625">
        <ele>1493.5454101562</ele>
        <time>2015-07-09T13:01:27Z</time>
      </trkpt>
      <trkpt lat="42.83954" lon="-0.09625">
        <ele>1492.5842285156</ele>
        <time>2015-07-09T13:01:34Z</time>
      </trkpt>
      <trkpt lat="42.83965" lon="-0.09627">
        <ele>1492.5842285156</ele>
        <time>2015-07-09T13:01:45Z</time>
      </trkpt>
      <trkpt lat="42.83972" lon="-0.09631">
        <ele>1492.103515625</ele>
        <time>2015-07-09T13:01:52Z</time>
      </trkpt>
      <trkpt lat="42.83981" lon="-0.09635">
        <ele>1492.103515625</ele>
        <time>2015-07-09T13:02:02Z</time>
      </trkpt>
      <trkpt lat="42.83993" lon="-0.09643">
        <ele>1491.6228027344</ele>
        <time>2015-07-09T13:02:17Z</time>
      </trkpt>
      <trkpt lat="42.84005" lon="-0.09653">
        <ele>1490.1809082031</ele>
        <time>2015-07-09T13:02:33Z</time>
      </trkpt>
      <trkpt lat="42.84013" lon="-0.0966">
        <ele>1490.1809082031</ele>
        <time>2015-07-09T13:02:42Z</time>
      </trkpt>
      <trkpt lat="42.84036" lon="-0.09658">
        <ele>1489.2194824219</ele>
        <time>2015-07-09T13:03:04Z</time>
      </trkpt>
      <trkpt lat="42.84058" lon="-0.09662">
        <ele>1488.2583007812</ele>
        <time>2015-07-09T13:03:24Z</time>
      </trkpt>
      <trkpt lat="42.84073" lon="-0.09665">
        <ele>1489.2194824219</ele>
        <time>2015-07-09T13:03:42Z</time>
      </trkpt>
      <trkpt lat="42.84075" lon="-0.09667">
        <ele>1489.7001953125</ele>
        <time>2015-07-09T13:03:44Z</time>
      </trkpt>
      <trkpt lat="42.84087" lon="-0.09677">
        <ele>1487.7775878906</ele>
        <time>2015-07-09T13:04:01Z</time>
      </trkpt>
      <trkpt lat="42.84092" lon="-0.09682">
        <ele>1487.296875</ele>
        <time>2015-07-09T13:04:08Z</time>
      </trkpt>
      <trkpt lat="42.841" lon="-0.0969">
        <ele>1485.8549804688</ele>
        <time>2015-07-09T13:04:21Z</time>
      </trkpt>
      <trkpt lat="42.84105" lon="-0.09698">
        <ele>1484.4130859375</ele>
        <time>2015-07-09T13:04:30Z</time>
      </trkpt>
      <trkpt lat="42.84114" lon="-0.0971">
        <ele>1482.490234375</ele>
        <time>2015-07-09T13:04:44Z</time>
      </trkpt>
      <trkpt lat="42.84123" lon="-0.09721">
        <ele>1480.0869140625</ele>
        <time>2015-07-09T13:04:57Z</time>
      </trkpt>
      <trkpt lat="42.84124" lon="-0.09721">
        <ele>1480.0869140625</ele>
        <time>2015-07-09T13:04:58Z</time>
      </trkpt>
      <trkpt lat="42.84144" lon="-0.09734">
        <ele>1477.203125</ele>
        <time>2015-07-09T13:05:17Z</time>
      </trkpt>
      <trkpt lat="42.84163" lon="-0.09731">
        <ele>1476.2416992188</ele>
        <time>2015-07-09T13:05:32Z</time>
      </trkpt>
      <trkpt lat="42.84185" lon="-0.09721">
        <ele>1473.3579101562</ele>
        <time>2015-07-09T13:05:52Z</time>
      </trkpt>
      <trkpt lat="42.84195" lon="-0.09701">
        <ele>1471.4350585938</ele>
        <time>2015-07-09T13:06:12Z</time>
      </trkpt>
      <trkpt lat="42.84197" lon="-0.09696">
        <ele>1471.4350585938</ele>
        <time>2015-07-09T13:06:16Z</time>
      </trkpt>
      <trkpt lat="42.842" lon="-0.09678">
        <ele>1469.0319824219</ele>
        <time>2015-07-09T13:06:33Z</time>
      </trkpt>
      <trkpt lat="42.84216" lon="-0.09655">
        <ele>1468.0705566406</ele>
        <time>2015-07-09T13:06:53Z</time>
      </trkpt>
      <trkpt lat="42.84236" lon="-0.09657">
        <ele>1468.0705566406</ele>
        <time>2015-07-09T13:07:11Z</time>
      </trkpt>
      <trkpt lat="42.84259" lon="-0.09656">
        <ele>1467.1091308594</ele>
        <time>2015-07-09T13:07:32Z</time>
      </trkpt>
      <trkpt lat="42.84274" lon="-0.09659">
        <ele>1465.6672363281</ele>
        <time>2015-07-09T13:07:47Z</time>
      </trkpt>
      <trkpt lat="42.84287" lon="-0.09652">
        <ele>1468.0705566406</ele>
        <time>2015-07-09T13:08:01Z</time>
      </trkpt>
      <trkpt lat="42.84288" lon="-0.09652">
        <ele>1468.0705566406</ele>
        <time>2015-07-09T13:08:02Z</time>
      </trkpt>
      <trkpt lat="42.84295" lon="-0.09654">
        <ele>1467.5895996094</ele>
        <time>2015-07-09T13:08:19Z</time>
      </trkpt>
      <trkpt lat="42.84297" lon="-0.09655">
        <ele>1468.0705566406</ele>
        <time>2015-07-09T13:08:23Z</time>
      </trkpt>
      <trkpt lat="42.84306" lon="-0.09663">
        <ele>1467.1091308594</ele>
        <time>2015-07-09T13:08:38Z</time>
      </trkpt>
      <trkpt lat="42.8431" lon="-0.09664">
        <ele>1466.6284179688</ele>
        <time>2015-07-09T13:08:43Z</time>
      </trkpt>
      <trkpt lat="42.84328" lon="-0.0966">
        <ele>1465.1865234375</ele>
        <time>2015-07-09T13:09:02Z</time>
      </trkpt>
      <trkpt lat="42.8435" lon="-0.09664">
        <ele>1463.7443847656</ele>
        <time>2015-07-09T13:09:21Z</time>
      </trkpt>
      <trkpt lat="42.84373" lon="-0.09664">
        <ele>1462.783203125</ele>
        <time>2015-07-09T13:09:41Z</time>
      </trkpt>
      <trkpt lat="42.8439" lon="-0.09666">
        <ele>1461.3413085938</ele>
        <time>2015-07-09T13:10:01Z</time>
      </trkpt>
      <trkpt lat="42.84407" lon="-0.09664">
        <ele>1459.8991699219</ele>
        <time>2015-07-09T13:10:20Z</time>
      </trkpt>
      <trkpt lat="42.84419" lon="-0.09659">
        <ele>1458.4572753906</ele>
        <time>2015-07-09T13:10:35Z</time>
      </trkpt>
      <trkpt lat="42.84433" lon="-0.09652">
        <ele>1455.0927734375</ele>
        <time>2015-07-09T13:10:48Z</time>
      </trkpt>
      <trkpt lat="42.84444" lon="-0.09649">
        <ele>1452.689453125</ele>
        <time>2015-07-09T13:11:03Z</time>
      </trkpt>
      <trkpt lat="42.84447" lon="-0.09647">
        <ele>1452.689453125</ele>
        <time>2015-07-09T13:11:07Z</time>
      </trkpt>
      <trkpt lat="42.84457" lon="-0.09643">
        <ele>1449.3247070312</ele>
        <time>2015-07-09T13:11:18Z</time>
      </trkpt>
      <trkpt lat="42.84471" lon="-0.09638">
        <ele>1446.4409179688</ele>
        <time>2015-07-09T13:11:36Z</time>
      </trkpt>
      <trkpt lat="42.84485" lon="-0.09633">
        <ele>1444.0375976562</ele>
        <time>2015-07-09T13:11:53Z</time>
      </trkpt>
      <trkpt lat="42.84495" lon="-0.0963">
        <ele>1440.6728515625</ele>
        <time>2015-07-09T13:12:05Z</time>
      </trkpt>
      <trkpt lat="42.84508" lon="-0.09627">
        <ele>1437.3083496094</ele>
        <time>2015-07-09T13:12:17Z</time>
      </trkpt>
      <trkpt lat="42.8453" lon="-0.09619">
        <ele>1436.8276367188</ele>
        <time>2015-07-09T13:12:37Z</time>
      </trkpt>
      <trkpt lat="42.84541" lon="-0.09618">
        <ele>1435.8662109375</ele>
        <time>2015-07-09T13:12:46Z</time>
      </trkpt>
      <trkpt lat="42.84545" lon="-0.09619">
        <ele>1434.4243164062</ele>
        <time>2015-07-09T13:12:51Z</time>
      </trkpt>
      <trkpt lat="42.84553" lon="-0.09618">
        <ele>1433.9436035156</ele>
        <time>2015-07-09T13:12:57Z</time>
      </trkpt>
      <trkpt lat="42.84575" lon="-0.09623">
        <ele>1433.462890625</ele>
        <time>2015-07-09T13:13:16Z</time>
      </trkpt>
      <trkpt lat="42.84584" lon="-0.09628">
        <ele>1432.5017089844</ele>
        <time>2015-07-09T13:13:32Z</time>
      </trkpt>
      <trkpt lat="42.84602" lon="-0.09624">
        <ele>1429.6176757812</ele>
        <time>2015-07-09T13:13:50Z</time>
      </trkpt>
      <trkpt lat="42.84605" lon="-0.09621">
        <ele>1428.6564941406</ele>
        <time>2015-07-09T13:13:53Z</time>
      </trkpt>
      <trkpt lat="42.84628" lon="-0.09618">
        <ele>1427.6950683594</ele>
        <time>2015-07-09T13:14:13Z</time>
      </trkpt>
      <trkpt lat="42.84657" lon="-0.09617">
        <ele>1427.6950683594</ele>
        <time>2015-07-09T13:14:36Z</time>
      </trkpt>
      <trkpt lat="42.84664" lon="-0.09617">
        <ele>1427.2145996094</ele>
        <time>2015-07-09T13:14:51Z</time>
      </trkpt>
      <trkpt lat="42.84674" lon="-0.0962">
        <ele>1426.7338867188</ele>
        <time>2015-07-09T13:15:06Z</time>
      </trkpt>
      <trkpt lat="42.84683" lon="-0.09621">
        <ele>1427.2145996094</ele>
        <time>2015-07-09T13:15:20Z</time>
      </trkpt>
      <trkpt lat="42.8469" lon="-0.09621">
        <ele>1425.7724609375</ele>
        <time>2015-07-09T13:15:33Z</time>
      </trkpt>
      <trkpt lat="42.84699" lon="-0.0962">
        <ele>1424.8112792969</ele>
        <time>2015-07-09T13:15:49Z</time>
      </trkpt>
      <trkpt lat="42.84706" lon="-0.0962">
        <ele>1422.888671875</ele>
        <time>2015-07-09T13:15:56Z</time>
      </trkpt>
      <trkpt lat="42.84707" lon="-0.0962">
        <ele>1422.888671875</ele>
        <time>2015-07-09T13:15:57Z</time>
      </trkpt>
      <trkpt lat="42.84724" lon="-0.09627">
        <ele>1421.4465332031</ele>
        <time>2015-07-09T13:16:14Z</time>
      </trkpt>
      <trkpt lat="42.84748" lon="-0.09634">
        <ele>1420.4853515625</ele>
        <time>2015-07-09T13:16:35Z</time>
      </trkpt>
      <trkpt lat="42.84753" lon="-0.09636">
        <ele>1420.0046386719</ele>
        <time>2015-07-09T13:16:41Z</time>
      </trkpt>
      <trkpt lat="42.84759" lon="-0.09639">
        <ele>1420.0046386719</ele>
        <time>2015-07-09T13:16:47Z</time>
      </trkpt>
      <trkpt lat="42.84775" lon="-0.09649">
        <ele>1419.5239257812</ele>
        <time>2015-07-09T13:17:03Z</time>
      </trkpt>
      <trkpt lat="42.84795" lon="-0.09658">
        <ele>1417.6010742188</ele>
        <time>2015-07-09T13:17:23Z</time>
      </trkpt>
      <trkpt lat="42.84797" lon="-0.09658">
        <ele>1417.6010742188</ele>
        <time>2015-07-09T13:17:30Z</time>
      </trkpt>
      <trkpt lat="42.84816" lon="-0.09665">
        <ele>1414.7172851562</ele>
        <time>2015-07-09T13:17:48Z</time>
      </trkpt>
      <trkpt lat="42.84822" lon="-0.09666">
        <ele>1413.275390625</ele>
        <time>2015-07-09T13:17:53Z</time>
      </trkpt>
      <trkpt lat="42.84843" lon="-0.09675">
        <ele>1412.7946777344</ele>
        <time>2015-07-09T13:18:12Z</time>
      </trkpt>
      <trkpt lat="42.84869" lon="-0.09688">
        <ele>1411.3527832031</ele>
        <time>2015-07-09T13:18:35Z</time>
      </trkpt>
      <trkpt lat="42.84892" lon="-0.09701">
        <ele>1409.9106445312</ele>
        <time>2015-07-09T13:18:56Z</time>
      </trkpt>
      <trkpt lat="42.84918" lon="-0.09722">
        <ele>1409.9106445312</ele>
        <time>2015-07-09T13:19:20Z</time>
      </trkpt>
      <trkpt lat="42.84932" lon="-0.09735">
        <ele>1409.4301757812</ele>
        <time>2015-07-09T13:19:36Z</time>
      </trkpt>
      <trkpt lat="42.84956" lon="-0.09748">
        <ele>1407.98828125</ele>
        <time>2015-07-09T13:19:57Z</time>
      </trkpt>
      <trkpt lat="42.84977" lon="-0.09756">
        <ele>1407.5075683594</ele>
        <time>2015-07-09T13:20:16Z</time>
      </trkpt>
      <trkpt lat="42.84995" lon="-0.0976">
        <ele>1406.5461425781</ele>
        <time>2015-07-09T13:20:33Z</time>
      </trkpt>
      <trkpt lat="42.85019" lon="-0.09766">
        <ele>1405.5849609375</ele>
        <time>2015-07-09T13:20:54Z</time>
      </trkpt>
      <trkpt lat="42.85025" lon="-0.09769">
        <ele>1405.1042480469</ele>
        <time>2015-07-09T13:21:04Z</time>
      </trkpt>
      <trkpt lat="42.85045" lon="-0.09773">
        <ele>1403.1813964844</ele>
        <time>2015-07-09T13:21:23Z</time>
      </trkpt>
      <trkpt lat="42.85067" lon="-0.09784">
        <ele>1401.2587890625</ele>
        <time>2015-07-09T13:21:44Z</time>
      </trkpt>
      <trkpt lat="42.85072" lon="-0.09782">
        <ele>1400.7780761719</ele>
        <time>2015-07-09T13:21:49Z</time>
      </trkpt>
      <trkpt lat="42.85088" lon="-0.09784">
        <ele>1399.8168945312</ele>
        <time>2015-07-09T13:22:05Z</time>
      </trkpt>
      <trkpt lat="42.85103" lon="-0.09782">
        <ele>1396.9328613281</ele>
        <time>2015-07-09T13:22:22Z</time>
      </trkpt>
      <trkpt lat="42.85118" lon="-0.09779">
        <ele>1395.0102539062</ele>
        <time>2015-07-09T13:22:37Z</time>
      </trkpt>
      <trkpt lat="42.85144" lon="-0.09777">
        <ele>1395.0102539062</ele>
        <time>2015-07-09T13:22:57Z</time>
      </trkpt>
      <trkpt lat="42.85169" lon="-0.09779">
        <ele>1395.0102539062</ele>
        <time>2015-07-09T13:23:15Z</time>
      </trkpt>
      <trkpt lat="42.85193" lon="-0.09778">
        <ele>1394.5295410156</ele>
        <time>2015-07-09T13:23:34Z</time>
      </trkpt>
      <trkpt lat="42.85212" lon="-0.09787">
        <ele>1393.568359375</ele>
        <time>2015-07-09T13:23:50Z</time>
      </trkpt>
      <trkpt lat="42.85236" lon="-0.09796">
        <ele>1392.1264648438</ele>
        <time>2015-07-09T13:24:09Z</time>
      </trkpt>
      <trkpt lat="42.85252" lon="-0.0981">
        <ele>1392.1264648438</ele>
        <time>2015-07-09T13:24:25Z</time>
      </trkpt>
      <trkpt lat="42.85255" lon="-0.09806">
        <ele>1391.6457519531</ele>
        <time>2015-07-09T13:24:31Z</time>
      </trkpt>
      <trkpt lat="42.85267" lon="-0.0981">
        <ele>1391.1650390625</ele>
        <time>2015-07-09T13:24:42Z</time>
      </trkpt>
      <trkpt lat="42.85293" lon="-0.09817">
        <ele>1389.7231445312</ele>
        <time>2015-07-09T13:25:06Z</time>
      </trkpt>
      <trkpt lat="42.85319" lon="-0.09818">
        <ele>1389.2424316406</ele>
        <time>2015-07-09T13:25:29Z</time>
      </trkpt>
      <trkpt lat="42.85353" lon="-0.09815">
        <ele>1387.8002929688</ele>
        <time>2015-07-09T13:25:56Z</time>
      </trkpt>
      <trkpt lat="42.85362" lon="-0.09817">
        <ele>1387.3195800781</ele>
        <time>2015-07-09T13:26:04Z</time>
      </trkpt>
      <trkpt lat="42.85365" lon="-0.09823">
        <ele>1384.9165039062</ele>
        <time>2015-07-09T13:26:17Z</time>
      </trkpt>
      <trkpt lat="42.85365" lon="-0.09824">
        <ele>1385.8776855469</ele>
        <time>2015-07-09T13:26:28Z</time>
      </trkpt>
    </trkseg>
  </trk>
</gpx>